Time,TemperatureF,DewpointF,PressureIn,WindDirection,WindDirectionDegrees,WindSpeedMPH,WindSpeedGustMPH,Humidity,HourlyPrecipIn,Conditions,Clouds,dailyrainin,SoftwareType,DateUTC
2013-03-02 00:00:00,56.7,44.2,30.06,WNW,294,7.0,7.0,63,0.00,,,0.00,Wunderground v.1.15,2013-03-02 05:00:00,
2013-03-02 00:01:00,56.7,44.7,30.06,NW,315,6.0,7.0,64,0.00,,,0.00,Wunderground v.1.15,2013-03-02 05:01:00,
2013-03-02 00:02:00,56.7,44.7,30.05,NW,323,3.0,7.0,64,0.00,,,0.00,Wunderground v.1.15,2013-03-02 05:02:00,
2013-03-02 00:04:00,56.7,44.7,30.06,WNW,295,2.0,7.0,64,0.00,,,0.00,Wunderground v.1.15,2013-03-02 05:04:00,
2013-03-02 00:06:00,56.7,44.2,30.06,NNW,327,10.0,10.0,63,0.00,,,0.00,Wunderground v.1.15,2013-03-02 05:06:00,
2013-03-02 00:07:00,56.7,44.2,30.06,West,279,5.0,10.0,63,0.00,,,0.00,Wunderground v.1.15,2013-03-02 05:07:00,
2013-03-02 00:08:00,56.7,43.8,30.06,WNW,283,10.0,10.0,62,0.00,,,0.00,Wunderground v.1.15,2013-03-02 05:08:00,
2013-03-02 00:09:00,56.7,43.8,30.06,WNW,291,11.0,11.0,62,0.00,,,0.00,Wunderground v.1.15,2013-03-02 05:09:00,
2013-03-02 00:11:00,56.7,44.2,30.06,NNW,343,4.0,13.0,63,0.00,,,0.00,Wunderground v.1.15,2013-03-02 05:11:00,
2013-03-02 00:13:00,56.8,44.3,30.06,WNW,299,4.0,13.0,63,0.00,,,0.00,Wunderground v.1.15,2013-03-02 05:13:00,
2013-03-02 00:17:00,56.8,43.9,30.05,WNW,293,4.0,13.0,62,0.00,,,0.00,Wunderground v.1.15,2013-03-02 05:17:00,
2013-03-02 00:23:00,56.8,44.7,30.05,NNE,19,4.0,7.0,64,0.00,,,0.00,Wunderground v.1.15,2013-03-02 05:23:00,
2013-03-02 00:25:00,56.8,44.3,30.05,WNW,302,2.0,11.0,63,0.00,,,0.00,Wunderground v.1.15,2013-03-02 05:25:00,
2013-03-02 00:26:00,56.8,44.7,30.05,WNW,294,2.0,11.0,64,0.00,,,0.00,Wunderground v.1.15,2013-03-02 05:26:00,
2013-03-02 00:31:00,56.8,44.7,30.05,NW,304,9.0,9.0,64,0.00,,,0.00,Wunderground v.1.15,2013-03-02 05:31:00,
2013-03-02 00:33:00,56.8,44.3,30.05,NW,319,12.0,12.0,63,0.00,,,0.00,Wunderground v.1.15,2013-03-02 05:33:00,
2013-03-02 00:34:00,56.8,44.3,30.05,NW,314,4.0,12.0,63,0.00,,,0.00,Wunderground v.1.15,2013-03-02 05:34:00,
2013-03-02 00:38:00,56.8,44.3,30.05,NW,320,6.0,12.0,63,0.00,,,0.00,Wunderground v.1.15,2013-03-02 05:38:00,
2013-03-02 00:39:00,56.8,44.3,30.05,WNW,301,7.0,12.0,63,0.00,,,0.00,Wunderground v.1.15,2013-03-02 05:39:00,
2013-03-02 00:42:00,56.8,44.3,30.05,NW,305,11.0,11.0,63,0.00,,,0.00,Wunderground v.1.15,2013-03-02 05:42:00,
2013-03-02 00:43:00,56.8,44.7,30.05,WNW,301,6.0,11.0,64,0.00,,,0.00,Wunderground v.1.15,2013-03-02 05:43:00,
2013-03-02 00:46:00,56.8,44.3,30.06,NW,311,5.0,11.0,63,0.00,,,0.00,Wunderground v.1.15,2013-03-02 05:46:00,
2013-03-02 00:47:00,56.8,44.3,30.06,West,273,9.0,11.0,63,0.00,,,0.00,Wunderground v.1.15,2013-03-02 05:47:00,
2013-03-02 00:51:00,56.8,44.3,30.05,NW,318,9.0,9.0,63,0.00,,,0.00,Wunderground v.1.15,2013-03-02 05:51:00,
2013-03-02 00:52:00,56.8,44.3,30.05,NW,319,4.0,9.0,63,0.00,,,0.00,Wunderground v.1.15,2013-03-02 05:52:00,
2013-03-02 00:53:00,56.8,44.7,30.05,NW,311,5.0,9.0,64,0.00,,,0.00,Wunderground v.1.15,2013-03-02 05:53:00,
2013-03-02 00:56:00,56.8,44.7,30.05,WNW,298,8.0,9.0,64,0.00,,,0.00,Wunderground v.1.15,2013-03-02 05:56:00,
2013-03-02 00:57:00,56.8,44.7,30.05,North,355,13.0,13.0,64,0.00,,,0.00,Wunderground v.1.15,2013-03-02 05:57:00,
2013-03-02 01:01:00,56.8,44.7,30.05,NNW,347,4.0,11.0,64,0.00,,,0.00,Wunderground v.1.15,2013-03-02 06:01:00,
2013-03-02 01:03:00,56.8,44.7,30.05,NW,310,7.0,11.0,64,0.00,,,0.00,Wunderground v.1.15,2013-03-02 06:03:00,
2013-03-02 01:04:00,56.8,44.7,30.05,NNE,25,5.0,11.0,64,0.00,,,0.00,Wunderground v.1.15,2013-03-02 06:04:00,
2013-03-02 01:06:00,56.8,44.7,30.05,NW,319,2.0,11.0,64,0.00,,,0.00,Wunderground v.1.15,2013-03-02 06:06:00,
2013-03-02 01:11:00,56.8,44.3,30.04,NNW,344,12.0,12.0,63,0.00,,,0.00,Wunderground v.1.15,2013-03-02 06:11:00,
2013-03-02 01:14:00,56.8,43.9,30.05,NW,311,3.0,12.0,62,0.00,,,0.00,Wunderground v.1.15,2013-03-02 06:14:00,
2013-03-02 01:15:00,56.8,43.9,30.04,WNW,302,12.0,12.0,62,0.00,,,0.00,Wunderground v.1.15,2013-03-02 06:15:00,
2013-03-02 01:16:00,56.8,44.3,30.04,North,6,4.0,12.0,63,0.00,,,0.00,Wunderground v.1.15,2013-03-02 06:16:00,
2013-03-02 01:18:00,56.8,44.3,30.04,NW,307,9.0,12.0,63,0.00,,,0.00,Wunderground v.1.15,2013-03-02 06:18:00,
2013-03-02 01:20:00,56.7,44.2,30.04,WNW,283,7.0,8.0,63,0.00,,,0.00,Wunderground v.1.15,2013-03-02 06:20:00,
2013-03-02 01:23:00,56.8,44.3,30.04,NNW,343,13.0,13.0,63,0.00,,,0.00,Wunderground v.1.15,2013-03-02 06:23:00,
2013-03-02 01:24:00,56.7,44.2,30.04,NNW,329,7.0,13.0,63,0.00,,,0.00,Wunderground v.1.15,2013-03-02 06:24:00,
2013-03-02 01:25:00,56.8,44.3,30.05,NW,313,13.0,13.0,63,0.00,,,0.00,Wunderground v.1.15,2013-03-02 06:25:00,
2013-03-02 01:27:00,56.7,44.2,30.04,NNW,337,4.0,13.0,63,0.00,,,0.00,Wunderground v.1.15,2013-03-02 06:27:00,
2013-03-02 01:30:00,56.7,44.7,30.05,North,352,4.0,9.0,64,0.00,,,0.00,Wunderground v.1.15,2013-03-02 06:30:00,
2013-03-02 01:31:00,56.7,44.7,30.05,NW,314,4.0,9.0,64,0.00,,,0.00,Wunderground v.1.15,2013-03-02 06:31:00,
2013-03-02 01:33:00,56.7,45.1,30.05,West,267,2.0,9.0,65,0.00,,,0.00,Wunderground v.1.15,2013-03-02 06:33:00,
2013-03-02 01:35:00,56.7,44.7,30.05,NW,309,4.0,9.0,64,0.00,,,0.00,Wunderground v.1.15,2013-03-02 06:35:00,
2013-03-02 01:36:00,56.7,44.7,30.05,NW,316,5.0,9.0,64,0.00,,,0.00,Wunderground v.1.15,2013-03-02 06:36:00,
2013-03-02 01:39:00,56.7,45.1,30.05,WNW,302,10.0,10.0,65,0.00,,,0.00,Wunderground v.1.15,2013-03-02 06:39:00,
2013-03-02 01:42:00,56.7,45.1,30.05,North,352,12.0,12.0,65,0.00,,,0.00,Wunderground v.1.15,2013-03-02 06:42:00,
2013-03-02 01:44:00,56.7,45.1,30.05,NNW,329,8.0,12.0,65,0.00,,,0.00,Wunderground v.1.15,2013-03-02 06:44:00,
2013-03-02 01:45:00,56.7,45.1,30.04,NNW,334,9.0,12.0,65,0.00,,,0.00,Wunderground v.1.15,2013-03-02 06:45:00,
2013-03-02 01:47:00,56.7,45.1,30.04,WNW,290,10.0,12.0,65,0.00,,,0.00,Wunderground v.1.15,2013-03-02 06:47:00,
2013-03-02 01:49:00,56.7,45.5,30.04,NW,320,8.0,12.0,66,0.00,,,0.00,Wunderground v.1.15,2013-03-02 06:49:00,
2013-03-02 01:51:00,56.6,45.4,30.04,NW,309,5.0,8.0,66,0.00,,,0.00,Wunderground v.1.15,2013-03-02 06:51:00,
2013-03-02 01:53:00,56.7,45.5,30.04,NW,307,6.0,8.0,66,0.00,,,0.00,Wunderground v.1.15,2013-03-02 06:53:00,
2013-03-02 01:55:00,56.6,45.0,30.04,NE,44,4.0,11.0,65,0.00,,,0.00,Wunderground v.1.15,2013-03-02 06:55:00,
2013-03-02 01:58:00,56.6,45.0,30.04,NW,319,11.0,11.0,65,0.00,,,0.00,Wunderground v.1.15,2013-03-02 06:58:00,
2013-03-02 02:00:00,56.6,45.0,30.05,NW,317,10.0,10.0,65,0.00,,,0.00,Wunderground v.1.15,2013-03-02 07:00:00,
2013-03-02 02:01:00,56.6,45.0,30.05,WNW,296,5.0,10.0,65,0.00,,,0.00,Wunderground v.1.15,2013-03-02 07:01:00,
2013-03-02 02:03:00,56.6,45.0,30.05,NW,313,4.0,12.0,65,0.00,,,0.00,Wunderground v.1.15,2013-03-02 07:03:00,
2013-03-02 02:05:00,56.6,45.0,30.05,NW,319,2.0,13.0,65,0.00,,,0.00,Wunderground v.1.15,2013-03-02 07:05:00,
2013-03-02 02:06:00,56.6,45.0,30.05,WNW,291,4.0,13.0,65,0.00,,,0.00,Wunderground v.1.15,2013-03-02 07:06:00,
2013-03-02 02:09:00,56.6,45.0,30.04,NNW,335,5.0,13.0,65,0.00,,,0.00,Wunderground v.1.15,2013-03-02 07:09:00,
2013-03-02 02:10:00,56.6,45.0,30.04,NNW,334,5.0,7.0,65,0.00,,,0.00,Wunderground v.1.15,2013-03-02 07:10:00,
2013-03-02 02:11:00,56.5,44.9,30.04,NW,311,10.0,10.0,65,0.00,,,0.00,Wunderground v.1.15,2013-03-02 07:11:00,
2013-03-02 02:14:00,56.6,45.0,30.04,NW,318,12.0,12.0,65,0.00,,,0.00,Wunderground v.1.15,2013-03-02 07:14:00,
2013-03-02 02:15:00,56.6,45.0,30.04,NW,311,4.0,12.0,65,0.00,,,0.00,Wunderground v.1.15,2013-03-02 07:15:00,
2013-03-02 02:16:00,56.6,45.0,30.04,NW,305,7.0,12.0,65,0.00,,,0.00,Wunderground v.1.15,2013-03-02 07:16:00,
2013-03-02 02:19:00,56.5,44.9,30.04,North,6,3.0,12.0,65,0.00,,,0.00,Wunderground v.1.15,2013-03-02 07:19:00,
2013-03-02 02:20:00,56.5,45.3,30.04,NNW,330,3.0,7.0,66,0.00,,,0.00,Wunderground v.1.15,2013-03-02 07:20:00,
2013-03-02 02:21:00,56.5,45.3,30.04,West,277,1.0,7.0,66,0.00,,,0.00,Wunderground v.1.15,2013-03-02 07:21:00,
2013-03-02 02:24:00,56.5,44.9,30.04,WNW,292,7.0,14.0,65,0.00,,,0.00,Wunderground v.1.15,2013-03-02 07:24:00,
2013-03-02 02:26:00,56.6,45.0,30.04,WNW,285,4.0,14.0,65,0.00,,,0.00,Wunderground v.1.15,2013-03-02 07:26:00,
2013-03-02 02:27:00,56.5,44.9,30.04,NW,326,10.0,15.0,65,0.00,,,0.00,Wunderground v.1.15,2013-03-02 07:27:00,
2013-03-02 02:29:00,56.6,45.0,30.04,NW,312,4.0,15.0,65,0.00,,,0.00,Wunderground v.1.15,2013-03-02 07:29:00,
2013-03-02 02:31:00,56.6,45.0,30.04,NNW,340,5.0,9.0,65,0.00,,,0.00,Wunderground v.1.15,2013-03-02 07:31:00,
2013-03-02 02:32:00,56.6,45.0,30.04,NW,311,15.0,15.0,65,0.00,,,0.00,Wunderground v.1.15,2013-03-02 07:32:00,
2013-03-02 02:34:00,56.7,45.1,30.04,NW,318,5.0,15.0,65,0.00,,,0.00,Wunderground v.1.15,2013-03-02 07:34:00,
2013-03-02 02:36:00,56.7,45.1,30.04,NW,309,8.0,15.0,65,0.00,,,0.00,Wunderground v.1.15,2013-03-02 07:36:00,
2013-03-02 02:37:00,56.7,45.1,30.04,NW,318,4.0,15.0,65,0.00,,,0.00,Wunderground v.1.15,2013-03-02 07:37:00,
2013-03-02 02:39:00,56.7,45.1,30.04,WSW,245,4.0,15.0,65,0.00,,,0.00,Wunderground v.1.15,2013-03-02 07:39:00,
2013-03-02 02:41:00,56.7,45.1,30.04,NNW,338,9.0,9.0,65,0.00,,,0.00,Wunderground v.1.15,2013-03-02 07:41:00,
2013-03-02 02:42:00,56.7,45.1,30.04,NNW,327,10.0,12.0,65,0.00,,,0.00,Wunderground v.1.15,2013-03-02 07:42:00,
2013-03-02 02:44:00,56.7,45.1,30.04,WNW,290,6.0,14.0,65,0.00,,,0.00,Wunderground v.1.15,2013-03-02 07:44:00,
2013-03-02 02:46:00,56.7,45.1,30.04,NW,311,7.0,14.0,65,0.00,,,0.00,Wunderground v.1.15,2013-03-02 07:46:00,
2013-03-02 02:47:00,56.7,45.5,30.04,NW,313,6.0,14.0,66,0.00,,,0.00,Wunderground v.1.15,2013-03-02 07:47:00,
2013-03-02 02:49:00,56.7,45.1,30.04,ESE,110,3.0,16.0,65,0.00,,,0.00,Wunderground v.1.15,2013-03-02 07:49:00,
2013-03-02 02:51:00,56.7,45.1,30.04,NNW,333,9.0,14.0,65,0.00,,,0.00,Wunderground v.1.15,2013-03-02 07:51:00,
2013-03-02 02:52:00,56.7,45.1,30.04,WSW,255,6.0,15.0,65,0.00,,,0.00,Wunderground v.1.15,2013-03-02 07:52:00,
2013-03-02 02:54:00,56.7,45.1,30.04,NW,305,3.0,15.0,65,0.00,,,0.00,Wunderground v.1.15,2013-03-02 07:54:00,
2013-03-02 02:56:00,56.7,45.1,30.04,NW,316,8.0,15.0,65,0.00,,,0.00,Wunderground v.1.15,2013-03-02 07:56:00,
2013-03-02 02:57:00,56.7,45.1,30.04,NW,311,12.0,15.0,65,0.00,,,0.00,Wunderground v.1.15,2013-03-02 07:57:00,
2013-03-02 02:59:00,56.7,45.5,30.04,WNW,295,7.0,15.0,66,0.00,,,0.00,Wunderground v.1.15,2013-03-02 07:59:00,
2013-03-02 03:01:00,56.7,45.1,30.04,NNW,332,5.0,15.0,65,0.00,,,0.00,Wunderground v.1.15,2013-03-02 08:01:00,
2013-03-02 03:02:00,56.7,45.1,30.04,NNW,329,10.0,15.0,65,0.00,,,0.00,Wunderground v.1.15,2013-03-02 08:02:00,
2013-03-02 03:05:00,56.7,45.1,30.04,NW,312,5.0,15.0,65,0.00,,,0.00,Wunderground v.1.15,2013-03-02 08:05:00,
2013-03-02 03:06:00,56.7,45.1,30.03,NW,323,10.0,15.0,65,0.00,,,0.00,Wunderground v.1.15,2013-03-02 08:06:00,
2013-03-02 03:07:00,56.7,44.7,30.03,North,349,10.0,15.0,64,0.00,,,0.00,Wunderground v.1.15,2013-03-02 08:07:00,
2013-03-02 03:08:00,56.7,45.1,30.03,WNW,296,7.0,15.0,65,0.00,,,0.00,Wunderground v.1.15,2013-03-02 08:08:00,
2013-03-02 03:10:00,56.7,45.1,30.03,WNW,285,5.0,7.0,65,0.00,,,0.00,Wunderground v.1.15,2013-03-02 08:10:00,
2013-03-02 03:11:00,56.7,45.5,30.03,WNW,294,3.0,12.0,66,0.00,,,0.00,Wunderground v.1.15,2013-03-02 08:11:00,
2013-03-02 03:12:00,56.8,45.6,30.03,NW,305,6.0,12.0,66,0.00,,,0.00,Wunderground v.1.15,2013-03-02 08:12:00,
2013-03-02 03:13:00,56.8,45.6,30.03,WNW,297,9.0,12.0,66,0.00,,,0.00,Wunderground v.1.15,2013-03-02 08:13:00,
2013-03-02 03:15:00,56.7,45.1,30.03,West,279,4.0,12.0,65,0.00,,,0.00,Wunderground v.1.15,2013-03-02 08:15:00,
2013-03-02 03:16:00,56.7,45.1,30.03,NW,305,5.0,14.0,65,0.00,,,0.00,Wunderground v.1.15,2013-03-02 08:16:00,
2013-03-02 03:17:00,56.7,45.1,30.03,NNE,23,13.0,14.0,65,0.00,,,0.00,Wunderground v.1.15,2013-03-02 08:17:00,
2013-03-02 03:18:00,56.7,45.1,30.03,NNW,337,8.0,15.0,65,0.00,,,0.00,Wunderground v.1.15,2013-03-02 08:18:00,
2013-03-02 03:20:00,56.6,45.0,30.03,NNW,330,8.0,10.0,65,0.00,,,0.00,Wunderground v.1.15,2013-03-02 08:20:00,
2013-03-02 03:21:00,56.6,45.0,30.03,NNW,347,6.0,13.0,65,0.00,,,0.00,Wunderground v.1.15,2013-03-02 08:21:00,
2013-03-02 03:22:00,56.6,45.0,30.03,WNW,295,6.0,13.0,65,0.00,,,0.00,Wunderground v.1.15,2013-03-02 08:22:00,
2013-03-02 03:23:00,56.5,44.9,30.03,West,271,5.0,13.0,65,0.00,,,0.00,Wunderground v.1.15,2013-03-02 08:23:00,
2013-03-02 03:26:00,56.5,44.9,30.03,NW,312,3.0,13.0,65,0.00,,,0.00,Wunderground v.1.15,2013-03-02 08:26:00,
2013-03-02 03:27:00,56.5,44.9,30.03,NW,315,6.0,13.0,65,0.00,,,0.00,Wunderground v.1.15,2013-03-02 08:27:00,
2013-03-02 03:28:00,56.4,44.8,30.03,NNW,333,7.0,13.0,65,0.00,,,0.00,Wunderground v.1.15,2013-03-02 08:28:00,
2013-03-02 03:31:00,56.3,44.7,30.03,NNW,338,6.0,11.0,65,0.00,,,0.00,Wunderground v.1.15,2013-03-02 08:31:00,
2013-03-02 03:32:00,56.3,44.7,30.03,NNW,344,6.0,11.0,65,0.00,,,0.00,Wunderground v.1.15,2013-03-02 08:32:00,
2013-03-02 03:34:00,56.3,44.7,30.03,NW,321,7.0,11.0,65,0.00,,,0.00,Wunderground v.1.15,2013-03-02 08:34:00,
2013-03-02 03:36:00,56.2,44.2,30.03,NNW,339,6.0,12.0,64,0.00,,,0.00,Wunderground v.1.15,2013-03-02 08:36:00,
2013-03-02 03:37:00,56.1,44.1,30.03,NNW,335,7.0,12.0,64,0.00,,,0.00,Wunderground v.1.15,2013-03-02 08:37:00,
2013-03-02 03:39:00,56.0,44.0,30.03,NNW,343,6.0,13.0,64,0.00,,,0.00,Wunderground v.1.15,2013-03-02 08:39:00,
2013-03-02 03:41:00,55.9,43.9,30.04,NNW,330,6.0,11.0,64,0.00,,,0.00,Wunderground v.1.15,2013-03-02 08:41:00,
2013-03-02 03:42:00,55.9,43.9,30.04,WNW,291,6.0,11.0,64,0.00,,,0.00,Wunderground v.1.15,2013-03-02 08:42:00,
2013-03-02 03:43:00,55.9,43.9,30.04,NNW,329,3.0,11.0,64,0.00,,,0.00,Wunderground v.1.15,2013-03-02 08:43:00,
2013-03-02 03:44:00,55.8,43.8,30.04,NW,318,5.0,11.0,64,0.00,,,0.00,Wunderground v.1.15,2013-03-02 08:44:00,
2013-03-02 03:46:00,55.7,43.7,30.04,NNW,344,6.0,11.0,64,0.00,,,0.00,Wunderground v.1.15,2013-03-02 08:46:00,
2013-03-02 03:47:00,55.6,43.6,30.04,North,6,7.0,12.0,64,0.00,,,0.00,Wunderground v.1.15,2013-03-02 08:47:00,
2013-03-02 03:48:00,55.6,43.6,30.04,NW,323,5.0,12.0,64,0.00,,,0.00,Wunderground v.1.15,2013-03-02 08:48:00,
2013-03-02 03:49:00,55.6,43.6,30.04,NW,312,4.0,12.0,64,0.00,,,0.00,Wunderground v.1.15,2013-03-02 08:49:00,
2013-03-02 03:51:00,55.5,43.5,30.03,WSW,255,7.0,11.0,64,0.00,,,0.00,Wunderground v.1.15,2013-03-02 08:51:00,
2013-03-02 03:52:00,55.5,43.5,30.04,NNE,33,4.0,11.0,64,0.00,,,0.00,Wunderground v.1.15,2013-03-02 08:52:00,
2013-03-02 03:53:00,55.4,43.4,30.04,NNE,23,6.0,11.0,64,0.00,,,0.00,Wunderground v.1.15,2013-03-02 08:53:00,
2013-03-02 03:54:00,55.4,43.4,30.04,NNE,19,9.0,11.0,64,0.00,,,0.00,Wunderground v.1.15,2013-03-02 08:54:00,
2013-03-02 03:57:00,55.3,43.3,30.04,North,351,3.0,11.0,64,0.00,,,0.00,Wunderground v.1.15,2013-03-02 08:57:00,
2013-03-02 03:58:00,55.2,43.2,30.04,NNW,337,8.0,12.0,64,0.00,,,0.00,Wunderground v.1.15,2013-03-02 08:58:00,
2013-03-02 03:59:00,55.2,43.2,30.04,NNW,340,6.0,12.0,64,0.00,,,0.00,Wunderground v.1.15,2013-03-02 08:59:00,
2013-03-02 04:02:00,55.1,43.1,30.04,NNE,13,5.0,7.0,64,0.00,,,0.00,Wunderground v.1.15,2013-03-02 09:02:00,
2013-03-02 04:03:00,55.1,43.1,30.04,NNW,347,6.0,11.0,64,0.00,,,0.00,Wunderground v.1.15,2013-03-02 09:03:00,
2013-03-02 04:05:00,55.1,43.1,30.04,NNE,20,5.0,11.0,64,0.00,,,0.00,Wunderground v.1.15,2013-03-02 09:05:00,
2013-03-02 04:07:00,55.0,43.0,30.04,NW,312,7.0,11.0,64,0.00,,,0.00,Wunderground v.1.15,2013-03-02 09:07:00,
2013-03-02 04:08:00,55.0,43.0,30.04,NNW,334,9.0,12.0,64,0.00,,,0.00,Wunderground v.1.15,2013-03-02 09:08:00,
2013-03-02 04:10:00,55.0,43.0,30.03,NNW,347,10.0,10.0,64,0.00,,,0.00,Wunderground v.1.15,2013-03-02 09:10:00,
2013-03-02 04:12:00,54.9,42.9,30.03,NNW,333,5.0,11.0,64,0.00,,,0.00,Wunderground v.1.15,2013-03-02 09:12:00,
2013-03-02 04:13:00,54.9,42.9,30.03,NNW,340,4.0,11.0,64,0.00,,,0.00,Wunderground v.1.15,2013-03-02 09:13:00,
2013-03-02 04:15:00,54.9,42.9,30.03,North,8,6.0,11.0,64,0.00,,,0.00,Wunderground v.1.15,2013-03-02 09:15:00,
2013-03-02 04:17:00,54.8,42.9,30.03,NNW,347,10.0,12.0,64,0.00,,,0.00,Wunderground v.1.15,2013-03-02 09:17:00,
2013-03-02 04:18:00,54.8,42.9,30.03,NNW,340,6.0,12.0,64,0.00,,,0.00,Wunderground v.1.15,2013-03-02 09:18:00,
2013-03-02 04:20:00,54.8,42.9,30.03,NNW,347,5.0,9.0,64,0.00,,,0.00,Wunderground v.1.15,2013-03-02 09:20:00,
2013-03-02 04:22:00,54.8,42.9,30.03,NNE,16,5.0,9.0,64,0.00,,,0.00,Wunderground v.1.15,2013-03-02 09:22:00,
2013-03-02 04:23:00,54.8,42.9,30.03,NE,44,6.0,9.0,64,0.00,,,0.00,Wunderground v.1.15,2013-03-02 09:23:00,
2013-03-02 04:26:00,54.7,42.8,30.03,NE,42,2.0,9.0,64,0.00,,,0.00,Wunderground v.1.15,2013-03-02 09:26:00,
2013-03-02 04:28:00,54.7,42.8,30.03,NNW,330,4.0,9.0,64,0.00,,,0.00,Wunderground v.1.15,2013-03-02 09:28:00,
2013-03-02 04:29:00,54.7,42.8,30.03,NW,305,5.0,9.0,64,0.00,,,0.00,Wunderground v.1.15,2013-03-02 09:29:00,
2013-03-02 04:31:00,54.7,43.2,30.03,NNE,13,6.0,6.0,65,0.00,,,0.00,Wunderground v.1.15,2013-03-02 09:31:00,
2013-03-02 04:33:00,54.6,42.7,30.03,NW,305,3.0,7.0,64,0.00,,,0.00,Wunderground v.1.15,2013-03-02 09:33:00,
2013-03-02 04:34:00,54.6,43.1,30.03,NW,311,3.0,7.0,65,0.00,,,0.00,Wunderground v.1.15,2013-03-02 09:34:00,
2013-03-02 04:36:00,54.6,42.7,30.03,NW,314,1.0,11.0,64,0.00,,,0.00,Wunderground v.1.15,2013-03-02 09:36:00,
2013-03-02 04:39:00,54.6,43.1,30.03,NNW,336,3.0,11.0,65,0.00,,,0.00,Wunderground v.1.15,2013-03-02 09:39:00,
2013-03-02 04:41:00,54.5,43.0,30.03,North,4,4.0,5.0,65,0.00,,,0.00,Wunderground v.1.15,2013-03-02 09:41:00,
2013-03-02 04:44:00,54.5,42.6,30.03,NW,323,6.0,13.0,64,0.00,,,0.00,Wunderground v.1.15,2013-03-02 09:44:00,
2013-03-02 04:46:00,54.5,42.6,30.03,North,7,4.0,13.0,64,0.00,,,0.00,Wunderground v.1.15,2013-03-02 09:46:00,
2013-03-02 04:49:00,54.5,42.6,30.03,NNW,340,3.0,13.0,64,0.00,,,0.00,Wunderground v.1.15,2013-03-02 09:49:00,
2013-03-02 04:50:00,54.5,42.6,30.03,North,7,6.0,6.0,64,0.00,,,0.00,Wunderground v.1.15,2013-03-02 09:50:00,
2013-03-02 04:51:00,54.5,42.6,30.03,NW,321,7.0,10.0,64,0.00,,,0.00,Wunderground v.1.15,2013-03-02 09:51:00,
2013-03-02 04:54:00,54.5,42.6,30.03,NNE,25,6.0,10.0,64,0.00,,,0.00,Wunderground v.1.15,2013-03-02 09:54:00,
2013-03-02 04:55:00,54.4,42.5,30.03,NNW,340,7.0,10.0,64,0.00,,,0.00,Wunderground v.1.15,2013-03-02 09:55:00,
2013-03-02 04:56:00,54.4,42.5,30.03,North,11,6.0,11.0,64,0.00,,,0.00,Wunderground v.1.15,2013-03-02 09:56:00,
2013-03-02 04:59:00,54.4,42.9,30.03,NNW,333,7.0,11.0,65,0.00,,,0.00,Wunderground v.1.15,2013-03-02 09:59:00,
2013-03-02 05:00:00,54.4,42.9,30.03,North,354,9.0,11.0,65,0.00,,,0.00,Wunderground v.1.15,2013-03-02 10:00:00,
2013-03-02 05:02:00,54.4,42.9,30.03,North,8,5.0,12.0,65,0.00,,,0.00,Wunderground v.1.15,2013-03-02 10:02:00,
2013-03-02 05:04:00,54.3,42.8,30.03,NW,318,5.0,12.0,65,0.00,,,0.00,Wunderground v.1.15,2013-03-02 10:04:00,
2013-03-02 05:05:00,54.3,42.8,30.03,NW,320,5.0,12.0,65,0.00,,,0.00,Wunderground v.1.15,2013-03-02 10:05:00,
2013-03-02 05:08:00,54.3,42.8,30.04,NNE,31,3.0,12.0,65,0.00,,,0.00,Wunderground v.1.15,2013-03-02 10:08:00,
2013-03-02 05:10:00,54.3,42.8,30.04,North,8,5.0,5.0,65,0.00,,,0.00,Wunderground v.1.15,2013-03-02 10:10:00,
2013-03-02 05:11:00,54.3,42.8,30.04,North,352,7.0,7.0,65,0.00,,,0.00,Wunderground v.1.15,2013-03-02 10:11:00,
2013-03-02 05:13:00,54.3,42.8,30.04,North,5,5.0,9.0,65,0.00,,,0.00,Wunderground v.1.15,2013-03-02 10:13:00,
2013-03-02 05:15:00,54.3,42.8,30.03,NNE,12,4.0,9.0,65,0.00,,,0.00,Wunderground v.1.15,2013-03-02 10:15:00,
2013-03-02 05:16:00,54.3,42.8,30.03,NNE,13,4.0,9.0,65,0.00,,,0.00,Wunderground v.1.15,2013-03-02 10:16:00,
2013-03-02 05:18:00,54.2,42.7,30.03,NE,55,2.0,9.0,65,0.00,,,0.00,Wunderground v.1.15,2013-03-02 10:18:00,
2013-03-02 05:20:00,54.2,42.7,30.03,North,359,5.0,6.0,65,0.00,,,0.00,Wunderground v.1.15,2013-03-02 10:20:00,
2013-03-02 05:21:00,54.2,42.7,30.03,North,354,5.0,6.0,65,0.00,,,0.00,Wunderground v.1.15,2013-03-02 10:21:00,
2013-03-02 05:24:00,54.2,42.7,30.03,NNE,13,5.0,8.0,65,0.00,,,0.00,Wunderground v.1.15,2013-03-02 10:24:00,
2013-03-02 05:25:00,54.1,42.6,30.03,NNW,346,5.0,8.0,65,0.00,,,0.00,Wunderground v.1.15,2013-03-02 10:25:00,
2013-03-02 05:26:00,54.1,42.6,30.03,NNW,335,3.0,8.0,65,0.00,,,0.00,Wunderground v.1.15,2013-03-02 10:26:00,
2013-03-02 05:29:00,54.1,42.6,30.04,NNE,29,4.0,8.0,65,0.00,,,0.00,Wunderground v.1.15,2013-03-02 10:29:00,
2013-03-02 05:31:00,54.1,42.6,30.04,North,352,6.0,6.0,65,0.00,,,0.00,Wunderground v.1.15,2013-03-02 10:31:00,
2013-03-02 05:34:00,54.1,42.6,30.04,WNW,301,3.0,6.0,65,0.00,,,0.00,Wunderground v.1.15,2013-03-02 10:34:00,
2013-03-02 05:36:00,54.0,42.5,30.04,NW,315,4.0,6.0,65,0.00,,,0.00,Wunderground v.1.15,2013-03-02 10:36:00,
2013-03-02 05:39:00,54.0,42.5,30.04,NW,323,2.0,6.0,65,0.00,,,0.00,Wunderground v.1.15,2013-03-02 10:39:00,
2013-03-02 05:42:00,53.9,42.4,30.03,NW,325,5.0,6.0,65,0.00,,,0.00,Wunderground v.1.15,2013-03-02 10:42:00,
2013-03-02 05:44:00,54.0,42.5,30.03,NNE,23,4.0,8.0,65,0.00,,,0.00,Wunderground v.1.15,2013-03-02 10:44:00,
2013-03-02 05:47:00,54.0,42.1,30.03,NNE,25,3.0,8.0,64,0.00,,,0.00,Wunderground v.1.15,2013-03-02 10:47:00,
2013-03-02 05:50:00,54.0,42.5,30.04,North,349,3.0,4.0,65,0.00,,,0.00,Wunderground v.1.15,2013-03-02 10:50:00,
2013-03-02 05:52:00,53.9,42.4,30.04,NNW,340,2.0,6.0,65,0.00,,,0.00,Wunderground v.1.15,2013-03-02 10:52:00,
2013-03-02 05:55:00,53.9,42.4,30.04,East,84,1.0,6.0,65,0.00,,,0.00,Wunderground v.1.15,2013-03-02 10:55:00,
2013-03-02 05:57:00,53.8,42.7,30.04,NNE,30,8.0,10.0,66,0.00,,,0.00,Wunderground v.1.15,2013-03-02 10:57:00,
2013-03-02 06:00:00,53.5,42.4,30.04,ENE,69,8.0,8.0,66,0.00,,,0.00,Wunderground v.1.15,2013-03-02 11:00:00,
2013-03-02 06:02:00,53.4,42.7,30.04,NNE,13,2.0,8.0,67,0.00,,,0.00,Wunderground v.1.15,2013-03-02 11:02:00,
2013-03-02 06:05:00,53.1,42.4,30.04,NE,45,5.0,8.0,67,0.00,,,0.00,Wunderground v.1.15,2013-03-02 11:05:00,
2013-03-02 06:07:00,52.9,42.6,30.04,ENE,61,3.0,8.0,68,0.00,,,0.00,Wunderground v.1.15,2013-03-02 11:07:00,
2013-03-02 06:08:00,52.8,42.5,30.03,ENE,75,6.0,8.0,68,0.00,,,0.00,Wunderground v.1.15,2013-03-02 11:08:00,
2013-03-02 06:10:00,52.6,42.3,30.03,ENE,64,2.0,4.0,68,0.00,,,0.00,Wunderground v.1.15,2013-03-02 11:10:00,
2013-03-02 06:12:00,52.4,42.1,30.03,ENE,75,3.0,5.0,68,0.00,,,0.00,Wunderground v.1.15,2013-03-02 11:12:00,
2013-03-02 06:13:00,52.4,42.1,30.03,NE,44,2.0,5.0,68,0.00,,,0.00,Wunderground v.1.15,2013-03-02 11:13:00,
2013-03-02 06:15:00,52.3,42.0,30.03,ENE,68,3.0,7.0,68,0.00,,,0.00,Wunderground v.1.15,2013-03-02 11:15:00,
2013-03-02 06:17:00,52.1,42.2,30.03,ENE,72,3.0,7.0,69,0.00,,,0.00,Wunderground v.1.15,2013-03-02 11:17:00,
2013-03-02 06:18:00,52.1,42.2,30.03,East,82,3.0,7.0,69,0.00,,,0.00,Wunderground v.1.15,2013-03-02 11:18:00,
2013-03-02 06:20:00,52.0,42.1,30.03,ENE,62,1.0,4.0,69,0.00,,,0.00,Wunderground v.1.15,2013-03-02 11:20:00,
2013-03-02 06:22:00,51.8,42.3,30.03,ENE,75,2.0,4.0,70,0.00,,,0.00,Wunderground v.1.15,2013-03-02 11:22:00,
2013-03-02 06:23:00,51.7,42.2,30.03,ENE,73,2.0,4.0,70,0.00,,,0.00,Wunderground v.1.15,2013-03-02 11:23:00,
2013-03-02 06:26:00,51.6,42.1,30.03,ENE,75,3.0,4.0,70,0.00,,,0.00,Wunderground v.1.15,2013-03-02 11:26:00,
2013-03-02 06:27:00,51.5,42.4,30.03,East,85,2.0,4.0,71,0.00,,,0.00,Wunderground v.1.15,2013-03-02 11:27:00,
2013-03-02 06:28:00,51.4,42.3,30.03,ENE,68,3.0,4.0,71,0.00,,,0.00,Wunderground v.1.15,2013-03-02 11:28:00,
2013-03-02 06:29:00,51.4,42.3,30.03,ENE,78,2.0,4.0,71,0.00,,,0.00,Wunderground v.1.15,2013-03-02 11:29:00,
2013-03-02 06:31:00,51.3,42.2,30.03,ENE,75,4.0,5.0,71,0.00,,,0.00,Wunderground v.1.15,2013-03-02 11:31:00,
2013-03-02 06:33:00,51.2,42.5,30.03,East,95,4.0,5.0,72,0.00,,,0.00,Wunderground v.1.15,2013-03-02 11:33:00,
2013-03-02 06:34:00,51.1,42.4,30.03,ENE,75,4.0,5.0,72,0.00,,,0.00,Wunderground v.1.15,2013-03-02 11:34:00,
2013-03-02 06:36:00,51.0,42.3,30.03,East,80,4.0,6.0,72,0.00,,,0.00,Wunderground v.1.15,2013-03-02 11:36:00,
2013-03-02 06:38:00,50.8,42.1,30.03,East,84,4.0,6.0,72,0.00,,,0.00,Wunderground v.1.15,2013-03-02 11:38:00,
2013-03-02 06:39:00,50.7,42.0,30.03,East,85,4.0,6.0,72,0.00,,,0.00,Wunderground v.1.15,2013-03-02 11:39:00,
2013-03-02 06:41:00,50.6,42.3,30.03,ENE,75,3.0,5.0,73,0.00,,,0.00,Wunderground v.1.15,2013-03-02 11:41:00,
2013-03-02 06:43:00,50.4,42.1,30.03,ENE,60,1.0,5.0,73,0.00,,,0.00,Wunderground v.1.15,2013-03-02 11:43:00,
2013-03-02 06:44:00,50.3,42.0,30.03,ENE,64,2.0,5.0,73,0.00,,,0.00,Wunderground v.1.15,2013-03-02 11:44:00,
2013-03-02 06:46:00,50.2,41.9,30.03,ENE,68,3.0,5.0,73,0.00,,,0.00,Wunderground v.1.15,2013-03-02 11:46:00,
2013-03-02 06:48:00,50.0,42.0,30.03,ENE,72,3.0,5.0,74,0.00,,,0.00,Wunderground v.1.15,2013-03-02 11:48:00,
2013-03-02 06:49:00,50.0,42.0,30.03,East,81,2.0,5.0,74,0.00,,,0.00,Wunderground v.1.15,2013-03-02 11:49:00,
2013-03-02 06:51:00,49.9,41.6,30.03,ESE,112,2.0,6.0,73,0.00,,,0.00,Wunderground v.1.15,2013-03-02 11:51:00,
2013-03-02 06:53:00,49.7,41.4,30.03,East,85,2.0,6.0,73,0.00,,,0.00,Wunderground v.1.15,2013-03-02 11:53:00,
2013-03-02 06:54:00,49.7,41.7,30.03,ENE,76,2.0,6.0,74,0.00,,,0.00,Wunderground v.1.15,2013-03-02 11:54:00,
2013-03-02 06:55:00,49.6,41.7,30.03,ENE,78,2.0,6.0,74,0.00,,,0.00,Wunderground v.1.15,2013-03-02 11:55:00,
2013-03-02 06:56:00,49.6,41.7,30.04,ENE,70,3.0,6.0,74,0.00,,,0.00,Wunderground v.1.15,2013-03-02 11:56:00,
2013-03-02 06:58:00,49.5,41.6,30.04,ENE,75,2.0,6.0,74,0.00,,,0.00,Wunderground v.1.15,2013-03-02 11:58:00,
2013-03-02 06:59:00,49.5,41.6,30.04,ENE,78,3.0,6.0,74,0.00,,,0.00,Wunderground v.1.15,2013-03-02 11:59:00,
2013-03-02 07:00:00,49.4,41.5,30.04,East,85,3.0,3.0,74,0.00,,,0.00,Wunderground v.1.15,2013-03-02 12:00:00,
2013-03-02 07:01:00,49.4,41.5,30.04,ENE,73,2.0,3.0,74,0.00,,,0.00,Wunderground v.1.15,2013-03-02 12:01:00,
2013-03-02 07:04:00,49.3,41.4,30.04,East,79,3.0,3.0,74,0.00,,,0.00,Wunderground v.1.15,2013-03-02 12:04:00,
2013-03-02 07:05:00,49.2,41.3,30.04,East,82,2.0,3.0,74,0.00,,,0.00,Wunderground v.1.15,2013-03-02 12:05:00,
2013-03-02 07:06:00,49.2,41.3,30.04,East,82,2.0,3.0,74,0.00,,,0.00,Wunderground v.1.15,2013-03-02 12:06:00,
2013-03-02 07:09:00,49.1,41.5,30.04,East,86,1.0,3.0,75,0.00,,,0.00,Wunderground v.1.15,2013-03-02 12:09:00,
2013-03-02 07:10:00,49.0,41.4,30.04,East,86,2.0,4.0,75,0.00,,,0.00,Wunderground v.1.15,2013-03-02 12:10:00,
2013-03-02 07:12:00,48.9,41.3,30.04,East,95,4.0,4.0,75,0.00,,,0.00,Wunderground v.1.15,2013-03-02 12:12:00,
2013-03-02 07:14:00,48.8,41.2,30.05,ENE,67,3.0,4.0,75,0.00,,,0.00,Wunderground v.1.15,2013-03-02 12:14:00,
2013-03-02 07:15:00,48.8,41.2,30.05,ENE,68,1.0,4.0,75,0.00,,,0.00,Wunderground v.1.15,2013-03-02 12:15:00,
2013-03-02 07:17:00,48.8,41.2,30.04,East,79,1.0,4.0,75,0.00,,,0.00,Wunderground v.1.15,2013-03-02 12:17:00,
2013-03-02 07:19:00,48.7,41.5,30.04,East,85,3.0,4.0,76,0.00,,,0.00,Wunderground v.1.15,2013-03-02 12:19:00,
2013-03-02 07:20:00,48.7,41.5,30.04,ESE,109,2.0,3.0,76,0.00,,,0.00,Wunderground v.1.15,2013-03-02 12:20:00,
2013-03-02 07:23:00,48.7,41.5,30.04,East,89,2.0,4.0,76,0.00,,,0.00,Wunderground v.1.15,2013-03-02 12:23:00,
2013-03-02 07:24:00,48.8,41.6,30.04,East,94,2.0,4.0,76,0.00,,,0.00,Wunderground v.1.15,2013-03-02 12:24:00,
2013-03-02 07:25:00,48.8,41.6,30.05,East,82,2.0,4.0,76,0.00,,,0.00,Wunderground v.1.15,2013-03-02 12:25:00,
2013-03-02 07:28:00,49.0,41.8,30.05,ENE,76,3.0,4.0,76,0.00,,,0.00,Wunderground v.1.15,2013-03-02 12:28:00,
2013-03-02 07:29:00,49.0,41.4,30.05,ENE,75,2.0,4.0,75,0.00,,,0.00,Wunderground v.1.15,2013-03-02 12:29:00,
2013-03-02 07:30:00,49.1,41.5,30.05,East,79,2.0,3.0,75,0.00,,,0.00,Wunderground v.1.15,2013-03-02 12:30:00,
2013-03-02 07:33:00,49.3,41.7,30.05,East,89,3.0,4.0,75,0.00,,,0.00,Wunderground v.1.15,2013-03-02 12:33:00,
2013-03-02 07:34:00,49.4,41.8,30.05,East,80,4.0,4.0,75,0.00,,,0.00,Wunderground v.1.15,2013-03-02 12:34:00,
2013-03-02 07:35:00,49.4,41.8,30.05,East,86,4.0,5.0,75,0.00,,,0.00,Wunderground v.1.15,2013-03-02 12:35:00,
2013-03-02 07:38:00,49.6,41.7,30.06,ENE,72,5.0,5.0,74,0.00,,,0.00,Wunderground v.1.15,2013-03-02 12:38:00,
2013-03-02 07:40:00,49.6,41.7,30.05,East,96,3.0,3.0,74,0.00,,,0.00,Wunderground v.1.15,2013-03-02 12:40:00,
2013-03-02 07:44:00,49.9,41.6,30.04,East,90,4.0,7.0,73,0.00,,,0.00,Wunderground v.1.15,2013-03-02 12:44:00,
2013-03-02 07:45:00,50.0,41.7,30.04,East,80,3.0,7.0,73,0.00,,,0.00,Wunderground v.1.15,2013-03-02 12:45:00,
2013-03-02 07:50:00,50.2,41.5,30.05,ENE,72,6.0,6.0,72,0.00,,,0.00,Wunderground v.1.15,2013-03-02 12:50:00,
2013-03-02 07:51:00,50.2,41.5,30.05,ENE,60,4.0,6.0,72,0.00,,,0.00,Wunderground v.1.15,2013-03-02 12:51:00,
2013-03-02 07:55:00,50.3,41.6,30.05,ENE,66,2.0,7.0,72,0.00,,,0.00,Wunderground v.1.15,2013-03-02 12:55:00,
2013-03-02 07:56:00,50.4,42.1,30.05,ENE,64,2.0,7.0,73,0.00,,,0.00,Wunderground v.1.15,2013-03-02 12:56:00,
2013-03-02 08:00:00,50.9,42.2,30.06,East,91,2.0,4.0,72,0.00,,,0.00,Wunderground v.1.15,2013-03-02 13:00:00,
2013-03-02 08:01:00,51.0,42.3,30.06,ENE,77,4.0,4.0,72,0.00,,,0.00,Wunderground v.1.15,2013-03-02 13:01:00,
2013-03-02 08:05:00,51.4,41.9,30.06,NE,41,3.0,7.0,70,0.00,,,0.00,Wunderground v.1.15,2013-03-02 13:05:00,
2013-03-02 08:06:00,51.4,41.9,30.06,ENE,62,3.0,7.0,70,0.00,,,0.00,Wunderground v.1.15,2013-03-02 13:06:00,
2013-03-02 08:10:00,51.2,41.0,30.06,ENE,70,5.0,6.0,68,0.00,,,0.00,Wunderground v.1.15,2013-03-02 13:10:00,
2013-03-02 08:11:00,51.1,41.3,30.06,ENE,69,6.0,7.0,69,0.00,,,0.00,Wunderground v.1.15,2013-03-02 13:11:00,
2013-03-02 08:16:00,50.8,41.0,30.06,ENE,69,6.0,8.0,69,0.00,,,0.00,Wunderground v.1.15,2013-03-02 13:16:00,
2013-03-02 08:17:00,50.8,41.0,30.06,ENE,67,2.0,8.0,69,0.00,,,0.00,Wunderground v.1.15,2013-03-02 13:17:00,
2013-03-02 08:18:00,50.8,41.4,30.06,ENE,75,6.0,8.0,70,0.00,,,0.00,Wunderground v.1.15,2013-03-02 13:18:00,
2013-03-02 08:21:00,50.7,41.3,30.06,ENE,64,4.0,5.0,70,0.00,,,0.00,Wunderground v.1.15,2013-03-02 13:21:00,
2013-03-02 08:23:00,50.8,41.4,30.07,NE,37,2.0,5.0,70,0.00,,,0.00,Wunderground v.1.15,2013-03-02 13:23:00,
2013-03-02 08:26:00,50.8,41.7,30.07,ENE,60,2.0,5.0,71,0.00,,,0.00,Wunderground v.1.15,2013-03-02 13:26:00,
2013-03-02 08:28:00,50.7,41.6,30.07,ENE,69,1.0,5.0,71,0.00,,,0.00,Wunderground v.1.15,2013-03-02 13:28:00,
2013-03-02 08:29:00,50.7,42.0,30.07,North,5,2.0,5.0,72,0.00,,,0.00,Wunderground v.1.15,2013-03-02 13:29:00,
2013-03-02 08:31:00,50.7,42.0,30.07,NE,53,3.0,3.0,72,0.00,,,0.00,Wunderground v.1.15,2013-03-02 13:31:00,
2013-03-02 08:32:00,50.6,41.9,30.07,East,81,3.0,3.0,72,0.00,,,0.00,Wunderground v.1.15,2013-03-02 13:32:00,
2013-03-02 08:34:00,50.5,41.4,30.07,East,89,4.0,4.0,71,0.00,,,0.00,Wunderground v.1.15,2013-03-02 13:34:00,
2013-03-02 08:36:00,50.5,41.4,30.07,ENE,75,3.0,4.0,71,0.00,,,0.00,Wunderground v.1.15,2013-03-02 13:36:00,
2013-03-02 08:37:00,50.4,41.3,30.07,ENE,60,2.0,4.0,71,0.00,,,0.00,Wunderground v.1.15,2013-03-02 13:37:00,
2013-03-02 08:41:00,50.4,41.7,30.07,NE,43,3.0,5.0,72,0.00,,,0.00,Wunderground v.1.15,2013-03-02 13:41:00,
2013-03-02 08:42:00,50.4,41.7,30.08,WNW,291,1.0,5.0,72,0.00,,,0.00,Wunderground v.1.15,2013-03-02 13:42:00,
2013-03-02 08:43:00,50.4,41.7,30.08,NNE,22,5.0,5.0,72,0.00,,,0.00,Wunderground v.1.15,2013-03-02 13:43:00,
2013-03-02 08:46:00,50.4,41.3,30.08,NE,34,4.0,11.0,71,0.00,,,0.00,Wunderground v.1.15,2013-03-02 13:46:00,
2013-03-02 08:47:00,50.3,41.3,30.08,NNE,31,3.0,11.0,71,0.00,,,0.00,Wunderground v.1.15,2013-03-02 13:47:00,
2013-03-02 08:48:00,50.3,41.6,30.08,NE,43,5.0,11.0,72,0.00,,,0.00,Wunderground v.1.15,2013-03-02 13:48:00,
2013-03-02 08:51:00,50.2,41.9,30.08,NNE,14,8.0,8.0,73,0.00,,,0.00,Wunderground v.1.15,2013-03-02 13:51:00,
2013-03-02 08:52:00,50.1,41.8,30.08,North,7,2.0,8.0,73,0.00,,,0.00,Wunderground v.1.15,2013-03-02 13:52:00,
2013-03-02 08:53:00,50.1,42.1,30.08,North,359,4.0,8.0,74,0.00,,,0.00,Wunderground v.1.15,2013-03-02 13:53:00,
2013-03-02 08:54:00,50.0,42.0,30.08,ENE,78,4.0,8.0,74,0.00,,,0.00,Wunderground v.1.15,2013-03-02 13:54:00,
2013-03-02 08:56:00,49.9,42.3,30.09,North,9,4.0,8.0,75,0.00,,,0.00,Wunderground v.1.15,2013-03-02 13:56:00,
2013-03-02 08:57:00,49.8,42.2,30.09,NNE,15,6.0,9.0,75,0.00,,,0.00,Wunderground v.1.15,2013-03-02 13:57:00,
2013-03-02 08:58:00,49.7,42.1,30.09,NE,39,3.0,9.0,75,0.00,,,0.00,Wunderground v.1.15,2013-03-02 13:58:00,
2013-03-02 08:59:00,49.7,42.4,30.09,NNE,16,7.0,9.0,76,0.00,,,0.00,Wunderground v.1.15,2013-03-02 13:59:00,
2013-03-02 09:01:00,49.5,42.2,30.09,NE,41,1.0,8.0,76,0.00,,,0.00,Wunderground v.1.15,2013-03-02 14:01:00,
2013-03-02 09:02:00,49.4,42.5,30.09,NNW,344,2.0,8.0,77,0.00,,,0.00,Wunderground v.1.15,2013-03-02 14:02:00,
2013-03-02 09:04:00,49.3,42.4,30.09,ENE,67,2.0,8.0,77,0.00,,,0.00,Wunderground v.1.15,2013-03-02 14:04:00,
2013-03-02 09:06:00,49.2,42.6,30.09,North,355,4.0,8.0,78,0.00,,,0.00,Wunderground v.1.15,2013-03-02 14:06:00,
2013-03-02 09:09:00,49.0,42.8,30.09,NNE,32,4.0,8.0,79,0.00,,,0.01,Wunderground v.1.15,2013-03-02 14:09:00,
2013-03-02 09:14:00,48.7,43.1,30.09,NE,51,2.0,4.0,81,0.00,,,0.01,Wunderground v.1.15,2013-03-02 14:14:00,
2013-03-02 09:15:00,48.6,43.0,30.09,ENE,69,2.0,4.0,81,0.00,,,0.01,Wunderground v.1.15,2013-03-02 14:15:00,
2013-03-02 09:17:00,48.5,43.3,30.08,ENE,73,2.0,4.0,82,0.00,,,0.01,Wunderground v.1.15,2013-03-02 14:17:00,
2013-03-02 09:19:00,48.4,43.2,30.08,ENE,70,2.0,4.0,82,0.00,,,0.01,Wunderground v.1.15,2013-03-02 14:19:00,
2013-03-02 09:21:00,48.4,43.5,30.08,NNE,29,3.0,3.0,83,0.00,,,0.01,Wunderground v.1.15,2013-03-02 14:21:00,
2013-03-02 09:24:00,48.3,43.7,30.08,NE,42,3.0,4.0,84,0.00,,,0.01,Wunderground v.1.15,2013-03-02 14:24:00,
2013-03-02 09:26:00,48.3,43.7,30.08,NNE,32,1.0,4.0,84,0.00,,,0.01,Wunderground v.1.15,2013-03-02 14:26:00,
2013-03-02 09:28:00,48.4,43.8,30.08,NE,49,1.0,4.0,84,0.00,,,0.01,Wunderground v.1.15,2013-03-02 14:28:00,
2013-03-02 09:30:00,48.4,43.8,30.08,ENE,68,3.0,3.0,84,0.00,,,0.01,Wunderground v.1.15,2013-03-02 14:30:00,
2013-03-02 09:32:00,48.5,43.9,30.08,NE,41,3.0,3.0,84,0.00,,,0.01,Wunderground v.1.15,2013-03-02 14:32:00,
2013-03-02 09:36:00,48.6,43.7,30.08,ENE,75,3.0,4.0,83,0.00,,,0.01,Wunderground v.1.15,2013-03-02 14:36:00,
2013-03-02 09:37:00,48.7,43.8,30.08,East,89,1.0,4.0,83,0.00,,,0.01,Wunderground v.1.15,2013-03-02 14:37:00,
2013-03-02 09:38:00,48.8,44.2,30.08,ESE,103,1.0,4.0,84,0.00,,,0.01,Wunderground v.1.15,2013-03-02 14:38:00,
2013-03-02 09:39:00,48.9,44.3,30.08,ENE,71,2.0,4.0,84,0.00,,,0.01,Wunderground v.1.15,2013-03-02 14:39:00,
2013-03-02 09:41:00,49.1,44.2,30.08,East,83,2.0,3.0,83,0.00,,,0.01,Wunderground v.1.15,2013-03-02 14:41:00,
2013-03-02 09:42:00,49.1,44.2,30.08,East,84,3.0,3.0,83,0.00,,,0.01,Wunderground v.1.15,2013-03-02 14:42:00,
2013-03-02 09:43:00,49.2,43.9,30.08,ENE,76,4.0,5.0,82,0.00,,,0.01,Wunderground v.1.15,2013-03-02 14:43:00,
2013-03-02 09:44:00,49.3,43.7,30.08,ENE,68,4.0,5.0,81,0.00,,,0.01,Wunderground v.1.15,2013-03-02 14:44:00,
2013-03-02 09:46:00,49.4,43.2,30.08,East,89,4.0,8.0,79,0.00,,,0.01,Wunderground v.1.15,2013-03-02 14:46:00,
2013-03-02 09:47:00,49.4,43.2,30.08,ENE,76,3.0,8.0,79,0.00,,,0.01,Wunderground v.1.15,2013-03-02 14:47:00,
2013-03-02 09:48:00,49.5,43.3,30.08,NE,39,4.0,8.0,79,0.00,,,0.01,Wunderground v.1.15,2013-03-02 14:48:00,
2013-03-02 09:49:00,49.8,43.5,30.08,NE,49,3.0,8.0,79,0.00,,,0.01,Wunderground v.1.15,2013-03-02 14:49:00,
2013-03-02 09:51:00,50.0,43.4,30.08,NE,36,1.0,5.0,78,0.00,,,0.01,Wunderground v.1.15,2013-03-02 14:51:00,
2013-03-02 09:52:00,50.2,43.6,30.08,North,8,0.0,5.0,78,0.00,,,0.01,Wunderground v.1.15,2013-03-02 14:52:00,
2013-03-02 09:53:00,50.3,43.7,30.08,NNE,29,3.0,5.0,78,0.00,,,0.01,Wunderground v.1.15,2013-03-02 14:53:00,
2013-03-02 09:55:00,50.5,43.6,30.08,ENE,60,1.0,5.0,77,0.00,,,0.01,Wunderground v.1.15,2013-03-02 14:55:00,
2013-03-02 09:56:00,50.6,43.3,30.08,NE,55,2.0,5.0,76,0.00,,,0.01,Wunderground v.1.15,2013-03-02 14:56:00,
2013-03-02 09:57:00,50.7,43.4,30.08,NE,37,3.0,5.0,76,0.00,,,0.01,Wunderground v.1.15,2013-03-02 14:57:00,
2013-03-02 09:58:00,50.7,43.1,30.09,NE,51,4.0,6.0,75,0.00,,,0.01,Wunderground v.1.15,2013-03-02 14:58:00,
2013-03-02 10:00:00,50.7,42.7,30.09,NE,44,4.0,4.0,74,0.00,,,0.01,Wunderground v.1.15,2013-03-02 15:00:00,
2013-03-02 10:02:00,50.8,42.8,30.08,NE,56,2.0,4.0,74,0.00,,,0.01,Wunderground v.1.15,2013-03-02 15:02:00,
2013-03-02 10:04:00,50.9,42.9,30.08,NNE,16,2.0,4.0,74,0.00,,,0.01,Wunderground v.1.15,2013-03-02 15:04:00,
2013-03-02 10:06:00,51.1,43.4,30.08,NNE,32,2.0,5.0,75,0.00,,,0.01,Wunderground v.1.15,2013-03-02 15:06:00,
2013-03-02 10:07:00,51.3,44.0,30.08,ENE,78,2.0,5.0,76,0.00,,,0.01,Wunderground v.1.15,2013-03-02 15:07:00,
2013-03-02 10:08:00,51.4,44.1,30.08,NE,38,4.0,6.0,76,0.00,,,0.01,Wunderground v.1.15,2013-03-02 15:08:00,
2013-03-02 10:09:00,51.4,43.7,30.08,NE,46,2.0,6.0,75,0.00,,,0.01,Wunderground v.1.15,2013-03-02 15:09:00,
2013-03-02 10:11:00,51.5,43.8,30.08,NE,41,5.0,7.0,75,0.00,,,0.01,Wunderground v.1.15,2013-03-02 15:11:00,
2013-03-02 10:12:00,51.5,43.1,30.08,NE,38,4.0,7.0,73,0.00,,,0.01,Wunderground v.1.15,2013-03-02 15:12:00,
2013-03-02 10:13:00,51.4,43.0,30.08,NNW,343,4.0,7.0,73,0.00,,,0.01,Wunderground v.1.15,2013-03-02 15:13:00,
2013-03-02 10:14:00,51.4,43.4,30.08,NE,41,2.0,7.0,74,0.00,,,0.01,Wunderground v.1.15,2013-03-02 15:14:00,
2013-03-02 10:16:00,51.4,43.0,30.08,ENE,65,2.0,7.0,73,0.00,,,0.01,Wunderground v.1.15,2013-03-02 15:16:00,
2013-03-02 10:17:00,51.4,43.0,30.09,ENE,75,1.0,7.0,73,0.00,,,0.01,Wunderground v.1.15,2013-03-02 15:17:00,
2013-03-02 10:18:00,51.5,43.1,30.09,ENE,69,3.0,7.0,73,0.00,,,0.01,Wunderground v.1.15,2013-03-02 15:18:00,
2013-03-02 10:19:00,51.4,43.0,30.08,East,82,4.0,7.0,73,0.00,,,0.01,Wunderground v.1.15,2013-03-02 15:19:00,
2013-03-02 10:21:00,51.6,43.6,30.09,NNE,28,4.0,4.0,74,0.00,,,0.01,Wunderground v.1.15,2013-03-02 15:21:00,
2013-03-02 10:22:00,51.6,43.2,30.09,ENE,60,2.0,4.0,73,0.00,,,0.01,Wunderground v.1.15,2013-03-02 15:22:00,
2013-03-02 10:23:00,51.7,43.3,30.09,ENE,64,3.0,4.0,73,0.00,,,0.01,Wunderground v.1.15,2013-03-02 15:23:00,
2013-03-02 10:24:00,51.8,43.4,30.09,NNE,27,2.0,4.0,73,0.00,,,0.01,Wunderground v.1.15,2013-03-02 15:24:00,
2013-03-02 10:26:00,52.0,43.6,30.09,North,1,2.0,4.0,73,0.00,,,0.01,Wunderground v.1.15,2013-03-02 15:26:00,
2013-03-02 10:27:00,52.0,43.6,30.09,NE,52,1.0,4.0,73,0.00,,,0.01,Wunderground v.1.15,2013-03-02 15:27:00,
2013-03-02 10:29:00,52.1,43.3,30.09,NE,43,3.0,4.0,72,0.00,,,0.01,Wunderground v.1.15,2013-03-02 15:29:00,
2013-03-02 10:31:00,52.1,43.3,30.08,NNE,16,0.0,2.0,72,0.00,,,0.01,Wunderground v.1.15,2013-03-02 15:31:00,
2013-03-02 10:32:00,52.2,43.4,30.09,WNW,289,1.0,2.0,72,0.00,,,0.01,Wunderground v.1.15,2013-03-02 15:32:00,
2013-03-02 10:34:00,52.4,43.6,30.08,NNE,18,3.0,3.0,72,0.00,,,0.01,Wunderground v.1.15,2013-03-02 15:34:00,
2013-03-02 10:36:00,52.6,43.8,30.09,NE,47,2.0,3.0,72,0.00,,,0.01,Wunderground v.1.15,2013-03-02 15:36:00,
2013-03-02 10:37:00,52.7,43.9,30.09,ENE,70,0.0,3.0,72,0.00,,,0.01,Wunderground v.1.15,2013-03-02 15:37:00,
2013-03-02 10:39:00,52.9,43.7,30.09,NE,47,3.0,3.0,71,0.00,,,0.01,Wunderground v.1.15,2013-03-02 15:39:00,
2013-03-02 10:42:00,53.0,43.5,30.09,North,360,2.0,3.0,70,0.00,,,0.01,Wunderground v.1.15,2013-03-02 15:42:00,
2013-03-02 10:44:00,53.2,43.3,30.09,North,5,3.0,4.0,69,0.00,,,0.01,Wunderground v.1.15,2013-03-02 15:44:00,
2013-03-02 10:45:00,53.2,43.3,30.09,NNW,337,2.0,4.0,69,0.00,,,0.01,Wunderground v.1.15,2013-03-02 15:45:00,
2013-03-02 10:47:00,53.3,43.8,30.09,NE,43,4.0,6.0,70,0.00,,,0.01,Wunderground v.1.15,2013-03-02 15:47:00,
2013-03-02 10:50:00,53.9,44.7,30.10,North,359,2.0,2.0,71,0.00,,,0.01,Wunderground v.1.15,2013-03-02 15:50:00,
2013-03-02 10:52:00,54.1,43.8,30.10,NNE,12,0.0,3.0,68,0.00,,,0.01,Wunderground v.1.15,2013-03-02 15:52:00,
2013-03-02 11:54:00,56.1,45.3,30.11,North,3,8.0,8.0,67,0.00,,,0.01,Wunderground v.1.15,2013-03-02 16:54:00,
2013-03-02 11:59:00,56.1,45.3,30.11,NNW,340,11.0,20.0,67,0.00,,,0.01,Wunderground v.1.15,2013-03-02 16:59:00,
2013-03-02 12:04:00,56.5,45.7,30.11,NW,305,18.0,18.0,67,0.00,,,0.01,Wunderground v.1.15,2013-03-02 17:04:00,
2013-03-02 12:09:00,56.8,45.6,30.11,WNW,284,12.0,19.0,66,0.00,,,0.01,Wunderground v.1.15,2013-03-02 17:09:00,
2013-03-02 12:14:00,56.9,45.7,30.10,North,355,8.0,17.0,66,0.00,,,0.01,Wunderground v.1.15,2013-03-02 17:14:00,
2013-03-02 12:19:00,57.4,45.7,30.10,NW,314,9.0,17.0,65,0.00,,,0.01,Wunderground v.1.15,2013-03-02 17:19:00,
2013-03-02 12:20:00,57.4,45.7,30.10,WNW,301,9.0,13.0,65,0.00,,,0.01,Wunderground v.1.15,2013-03-02 17:20:00,
2013-03-02 12:24:00,57.4,45.3,30.10,WSW,257,6.0,17.0,64,0.00,,,0.01,Wunderground v.1.15,2013-03-02 17:24:00,
2013-03-02 12:25:00,57.4,45.3,30.10,NNW,330,11.0,17.0,64,0.00,,,0.01,Wunderground v.1.15,2013-03-02 17:25:00,
2013-03-02 12:29:00,57.4,45.7,30.09,WNW,291,10.0,17.0,65,0.00,,,0.01,Wunderground v.1.15,2013-03-02 17:29:00,
2013-03-02 12:30:00,57.5,46.2,30.09,NNE,18,10.0,11.0,66,0.00,,,0.01,Wunderground v.1.15,2013-03-02 17:30:00,
2013-03-02 12:34:00,57.9,45.8,30.09,NW,318,9.0,18.0,64,0.00,,,0.01,Wunderground v.1.15,2013-03-02 17:34:00,
2013-03-02 12:35:00,57.9,45.8,30.09,NW,326,12.0,18.0,64,0.00,,,0.01,Wunderground v.1.15,2013-03-02 17:35:00,
2013-03-02 12:39:00,57.8,45.7,30.08,NW,319,11.0,21.0,64,0.00,,,0.01,Wunderground v.1.15,2013-03-02 17:39:00,
2013-03-02 12:40:00,57.8,45.7,30.08,WNW,300,6.0,11.0,64,0.00,,,0.01,Wunderground v.1.15,2013-03-02 17:40:00,
2013-03-02 12:44:00,58.2,45.2,30.08,NW,305,15.0,17.0,62,0.00,,,0.01,Wunderground v.1.15,2013-03-02 17:44:00,
2013-03-02 12:45:00,58.1,44.3,30.08,WNW,301,11.0,17.0,60,0.00,,,0.01,Wunderground v.1.15,2013-03-02 17:45:00,
2013-03-02 12:49:00,58.3,44.5,30.08,NNW,329,5.0,17.0,60,0.00,,,0.01,Wunderground v.1.15,2013-03-02 17:49:00,
2013-03-02 12:50:00,58.3,44.5,30.08,NW,316,9.0,13.0,60,0.00,,,0.01,Wunderground v.1.15,2013-03-02 17:50:00,
2013-03-02 12:55:00,57.8,43.1,30.08,WNW,294,9.0,18.0,58,0.00,,,0.01,Wunderground v.1.15,2013-03-02 17:55:00,
2013-03-02 13:00:00,58.0,44.2,30.08,WNW,302,7.0,10.0,60,0.00,,,0.01,Wunderground v.1.15,2013-03-02 18:00:00,
2013-03-02 13:01:00,58.0,43.7,30.08,NNW,337,12.0,15.0,59,0.00,,,0.01,Wunderground v.1.15,2013-03-02 18:01:00,
2013-03-02 13:05:00,57.9,44.1,30.08,NNW,337,6.0,21.0,60,0.00,,,0.01,Wunderground v.1.15,2013-03-02 18:05:00,
2013-03-02 13:06:00,57.8,43.6,30.08,SSE,155,3.0,21.0,59,0.00,,,0.01,Wunderground v.1.15,2013-03-02 18:06:00,
2013-03-02 13:10:00,57.7,43.9,30.08,NNE,15,12.0,12.0,60,0.00,,,0.01,Wunderground v.1.15,2013-03-02 18:10:00,
2013-03-02 13:11:00,57.7,43.9,30.08,NW,326,13.0,21.0,60,0.00,,,0.01,Wunderground v.1.15,2013-03-02 18:11:00,
2013-03-02 13:15:00,58.3,44.5,30.07,North,349,7.0,21.0,60,0.00,,,0.01,Wunderground v.1.15,2013-03-02 18:15:00,
2013-03-02 13:16:00,58.4,44.6,30.07,SSW,208,6.0,21.0,60,0.00,,,0.01,Wunderground v.1.15,2013-03-02 18:16:00,
2013-03-02 13:20:00,58.0,42.8,30.07,NW,305,6.0,15.0,57,0.00,,,0.01,Wunderground v.1.15,2013-03-02 18:20:00,
2013-03-02 13:21:00,57.9,43.2,30.07,WNW,290,9.0,15.0,58,0.00,,,0.01,Wunderground v.1.15,2013-03-02 18:21:00,
2013-03-02 13:25:00,57.6,42.9,30.06,WNW,302,6.0,20.0,58,0.00,,,0.01,Wunderground v.1.15,2013-03-02 18:25:00,
2013-03-02 13:26:00,57.6,43.4,30.06,WNW,294,6.0,20.0,59,0.00,,,0.01,Wunderground v.1.15,2013-03-02 18:26:00,
2013-03-02 13:27:00,57.7,43.9,30.06,NNW,340,5.0,20.0,60,0.00,,,0.01,Wunderground v.1.15,2013-03-02 18:27:00,
2013-03-02 13:30:00,57.8,43.1,30.06,WSW,255,12.0,15.0,58,0.00,,,0.01,Wunderground v.1.15,2013-03-02 18:30:00,
2013-03-02 13:31:00,57.6,42.9,30.06,NW,312,13.0,18.0,58,0.00,,,0.01,Wunderground v.1.15,2013-03-02 18:31:00,
2013-03-02 13:32:00,57.6,42.9,30.06,NW,313,15.0,18.0,58,0.00,,,0.01,Wunderground v.1.15,2013-03-02 18:32:00,
2013-03-02 13:35:00,58.0,43.7,30.06,NW,305,9.0,18.0,59,0.00,,,0.01,Wunderground v.1.15,2013-03-02 18:35:00,
2013-03-02 13:36:00,58.0,44.2,30.06,WNW,292,9.0,18.0,60,0.00,,,0.01,Wunderground v.1.15,2013-03-02 18:36:00,
2013-03-02 13:37:00,58.0,44.2,30.06,NW,317,11.0,18.0,60,0.00,,,0.01,Wunderground v.1.15,2013-03-02 18:37:00,
2013-03-02 13:40:00,58.0,43.7,30.05,NNW,337,7.0,17.0,59,0.00,,,0.01,Wunderground v.1.15,2013-03-02 18:40:00,
2013-03-02 13:42:00,57.9,43.7,30.05,WNW,300,15.0,17.0,59,0.00,,,0.01,Wunderground v.1.15,2013-03-02 18:42:00,
2013-03-02 13:43:00,57.8,43.6,30.05,WNW,282,8.0,17.0,59,0.00,,,0.01,Wunderground v.1.15,2013-03-02 18:43:00,
2013-03-02 13:46:00,57.6,43.8,30.05,North,8,4.0,17.0,60,0.00,,,0.01,Wunderground v.1.15,2013-03-02 18:46:00,
2013-03-02 13:47:00,57.7,44.8,30.05,NNW,343,6.0,17.0,62,0.00,,,0.01,Wunderground v.1.15,2013-03-02 18:47:00,
2013-03-02 13:48:00,58.0,45.0,30.05,NNW,327,4.0,17.0,62,0.00,,,0.01,Wunderground v.1.15,2013-03-02 18:48:00,
2013-03-02 13:51:00,58.3,43.6,30.05,NW,318,13.0,16.0,58,0.00,,,0.01,Wunderground v.1.15,2013-03-02 18:51:00,
2013-03-02 13:52:00,58.0,43.7,30.05,NW,323,8.0,20.0,59,0.00,,,0.01,Wunderground v.1.15,2013-03-02 18:52:00,
2013-03-02 13:53:00,57.8,43.6,30.04,West,274,11.0,20.0,59,0.00,,,0.01,Wunderground v.1.15,2013-03-02 18:53:00,
2013-03-02 13:56:00,57.6,44.2,30.05,NW,320,4.0,20.0,61,0.00,,,0.01,Wunderground v.1.15,2013-03-02 18:56:00,
2013-03-02 13:57:00,57.6,44.2,30.04,NW,307,10.0,20.0,61,0.00,,,0.01,Wunderground v.1.15,2013-03-02 18:57:00,
2013-03-02 13:59:00,57.6,44.2,30.05,NNW,337,4.0,20.0,61,0.00,,,0.01,Wunderground v.1.15,2013-03-02 18:59:00,
2013-03-02 14:01:00,57.7,44.8,30.05,WNW,302,9.0,10.0,62,0.00,,,0.01,Wunderground v.1.15,2013-03-02 19:01:00,
2013-03-02 14:02:00,57.6,44.7,30.04,NNE,27,7.0,12.0,62,0.00,,,0.01,Wunderground v.1.15,2013-03-02 19:02:00,
2013-03-02 14:04:00,57.5,44.6,30.04,WSW,252,5.0,18.0,62,0.00,,,0.01,Wunderground v.1.15,2013-03-02 19:04:00,
2013-03-02 14:06:00,57.3,44.8,30.04,NW,304,11.0,18.0,63,0.00,,,0.01,Wunderground v.1.15,2013-03-02 19:06:00,
2013-03-02 14:07:00,57.2,44.7,30.04,NW,305,7.0,18.0,63,0.00,,,0.01,Wunderground v.1.15,2013-03-02 19:07:00,
2013-03-02 14:08:00,57.2,44.7,30.04,NW,316,13.0,18.0,63,0.00,,,0.01,Wunderground v.1.15,2013-03-02 19:08:00,
2013-03-02 14:09:00,57.1,45.0,30.04,West,280,4.0,20.0,64,0.00,,,0.01,Wunderground v.1.15,2013-03-02 19:09:00,
2013-03-02 14:11:00,57.1,45.0,30.04,West,277,10.0,20.0,64,0.00,,,0.01,Wunderground v.1.15,2013-03-02 19:11:00,
2013-03-02 14:12:00,57.1,45.0,30.04,NW,326,9.0,20.0,64,0.00,,,0.01,Wunderground v.1.15,2013-03-02 19:12:00,
2013-03-02 14:13:00,57.2,44.7,30.04,NW,314,10.0,20.0,63,0.00,,,0.01,Wunderground v.1.15,2013-03-02 19:13:00,
2013-03-02 14:14:00,57.1,44.2,30.04,NW,313,13.0,20.0,62,0.00,,,0.01,Wunderground v.1.15,2013-03-02 19:14:00,
2013-03-02 14:16:00,57.2,44.3,30.04,WNW,288,7.0,20.0,62,0.00,,,0.01,Wunderground v.1.15,2013-03-02 19:16:00,
2013-03-02 14:17:00,57.2,44.3,30.04,NW,312,11.0,20.0,62,0.00,,,0.01,Wunderground v.1.15,2013-03-02 19:17:00,
2013-03-02 14:18:00,57.2,44.7,30.04,WNW,302,10.0,20.0,63,0.00,,,0.01,Wunderground v.1.15,2013-03-02 19:18:00,
2013-03-02 14:19:00,57.2,44.7,30.04,NW,309,15.0,20.0,63,0.00,,,0.01,Wunderground v.1.15,2013-03-02 19:19:00,
2013-03-02 14:21:00,57.3,44.8,30.04,West,263,6.0,16.0,63,0.00,,,0.01,Wunderground v.1.15,2013-03-02 19:21:00,
2013-03-02 14:22:00,57.4,44.9,30.04,NW,326,13.0,16.0,63,0.00,,,0.01,Wunderground v.1.15,2013-03-02 19:22:00,
2013-03-02 14:23:00,57.4,44.9,30.04,NW,321,6.0,16.0,63,0.00,,,0.01,Wunderground v.1.15,2013-03-02 19:23:00,
2013-03-02 14:24:00,57.5,45.0,30.04,WNW,298,9.0,17.0,63,0.00,,,0.01,Wunderground v.1.15,2013-03-02 19:24:00,
2013-03-02 14:26:00,57.5,45.0,30.04,NNW,340,8.0,17.0,63,0.00,,,0.01,Wunderground v.1.15,2013-03-02 19:26:00,
2013-03-02 14:27:00,57.4,44.9,30.04,North,349,8.0,18.0,63,0.00,,,0.01,Wunderground v.1.15,2013-03-02 19:27:00,
2013-03-02 14:28:00,57.4,44.9,30.04,WNW,303,6.0,18.0,63,0.00,,,0.01,Wunderground v.1.15,2013-03-02 19:28:00,
2013-03-02 14:29:00,57.3,45.2,30.04,NNW,340,12.0,18.0,64,0.00,,,0.01,Wunderground v.1.15,2013-03-02 19:29:00,
2013-03-02 14:31:00,57.4,44.9,30.04,NE,34,13.0,16.0,63,0.00,,,0.01,Wunderground v.1.15,2013-03-02 19:31:00,
2013-03-02 14:32:00,57.4,44.9,30.04,NNW,333,10.0,16.0,63,0.00,,,0.01,Wunderground v.1.15,2013-03-02 19:32:00,
2013-03-02 14:33:00,57.4,44.9,30.03,North,354,8.0,16.0,63,0.00,,,0.01,Wunderground v.1.15,2013-03-02 19:33:00,
2013-03-02 14:34:00,57.4,44.9,30.03,NW,305,10.0,16.0,63,0.00,,,0.01,Wunderground v.1.15,2013-03-02 19:34:00,
2013-03-02 14:37:00,57.6,45.1,30.03,NNW,330,6.0,16.0,63,0.00,,,0.01,Wunderground v.1.15,2013-03-02 19:37:00,
2013-03-02 14:38:00,57.6,44.7,30.03,NW,319,8.0,16.0,62,0.00,,,0.01,Wunderground v.1.15,2013-03-02 19:38:00,
2013-03-02 14:40:00,57.7,44.8,30.03,WNW,294,5.0,11.0,62,0.00,,,0.01,Wunderground v.1.15,2013-03-02 19:40:00,
2013-03-02 14:42:00,57.8,44.9,30.03,North,353,4.0,19.0,62,0.00,,,0.01,Wunderground v.1.15,2013-03-02 19:42:00,
2013-03-02 14:43:00,57.8,44.9,30.03,WNW,287,9.0,19.0,62,0.00,,,0.01,Wunderground v.1.15,2013-03-02 19:43:00,
2013-03-02 14:45:00,57.8,45.3,30.03,NW,326,9.0,19.0,63,0.00,,,0.01,Wunderground v.1.15,2013-03-02 19:45:00,
2013-03-02 14:47:00,58.0,44.6,30.03,WNW,298,13.0,19.0,61,0.00,,,0.01,Wunderground v.1.15,2013-03-02 19:47:00,
2013-03-02 14:48:00,58.0,45.0,30.03,NW,320,6.0,19.0,62,0.00,,,0.01,Wunderground v.1.15,2013-03-02 19:48:00,
2013-03-02 14:50:00,58.1,44.3,30.03,NW,318,5.0,15.0,60,0.00,,,0.01,Wunderground v.1.15,2013-03-02 19:50:00,
2013-03-02 14:52:00,58.4,45.4,30.03,NW,315,11.0,15.0,62,0.00,,,0.01,Wunderground v.1.15,2013-03-02 19:52:00,
2013-03-02 14:53:00,58.4,45.4,30.03,NW,319,10.0,15.0,62,0.00,,,0.01,Wunderground v.1.15,2013-03-02 19:53:00,
2013-03-02 14:54:00,58.5,45.5,30.03,NW,319,13.0,17.0,62,0.00,,,0.01,Wunderground v.1.15,2013-03-02 19:54:00,
2013-03-02 14:55:00,58.6,45.2,30.03,North,349,11.0,17.0,61,0.00,,,0.01,Wunderground v.1.15,2013-03-02 19:55:00,
2013-03-02 14:57:00,58.3,44.9,30.03,NNW,330,10.0,17.0,61,0.00,,,0.01,Wunderground v.1.15,2013-03-02 19:57:00,
2013-03-02 14:58:00,58.2,44.8,30.03,NW,315,16.0,17.0,61,0.00,,,0.01,Wunderground v.1.15,2013-03-02 19:58:00,
2013-03-02 14:59:00,58.0,44.6,30.03,NW,312,10.0,19.0,61,0.00,,,0.01,Wunderground v.1.15,2013-03-02 19:59:00,
2013-03-02 15:00:00,57.9,45.0,30.03,NNW,335,12.0,16.0,62,0.00,,,0.01,Wunderground v.1.15,2013-03-02 20:00:00,
2013-03-02 15:02:00,57.7,44.8,30.03,NNW,329,16.0,19.0,62,0.00,,,0.01,Wunderground v.1.15,2013-03-02 20:02:00,
2013-03-02 15:03:00,57.6,44.7,30.03,WNW,302,7.0,19.0,62,0.00,,,0.01,Wunderground v.1.15,2013-03-02 20:03:00,
2013-03-02 15:05:00,57.6,45.1,30.03,NNW,343,16.0,19.0,63,0.00,,,0.01,Wunderground v.1.15,2013-03-02 20:05:00,
2013-03-02 15:07:00,58.0,45.0,30.03,NW,307,12.0,19.0,62,0.00,,,0.01,Wunderground v.1.15,2013-03-02 20:07:00,
2013-03-02 15:08:00,58.2,44.8,30.03,WNW,283,5.0,19.0,61,0.00,,,0.01,Wunderground v.1.15,2013-03-02 20:08:00,
2013-03-02 15:10:00,58.3,44.5,30.03,WNW,285,6.0,13.0,60,0.00,,,0.01,Wunderground v.1.15,2013-03-02 20:10:00,
2013-03-02 15:12:00,58.4,44.6,30.03,NW,320,4.0,17.0,60,0.00,,,0.01,Wunderground v.1.15,2013-03-02 20:12:00,
2013-03-02 15:13:00,58.3,44.0,30.03,NW,314,7.0,17.0,59,0.00,,,0.01,Wunderground v.1.15,2013-03-02 20:13:00,
2013-03-02 15:15:00,58.2,44.8,30.03,NW,319,9.0,17.0,61,0.00,,,0.01,Wunderground v.1.15,2013-03-02 20:15:00,
2013-03-02 15:18:00,58.0,44.2,30.03,North,5,10.0,17.0,60,0.00,,,0.01,Wunderground v.1.15,2013-03-02 20:18:00,
2013-03-02 15:19:00,58.0,44.2,30.03,NW,310,13.0,17.0,60,0.00,,,0.01,Wunderground v.1.15,2013-03-02 20:19:00,
2013-03-02 15:20:00,57.8,44.4,30.03,NNW,333,6.0,12.0,61,0.00,,,0.01,Wunderground v.1.15,2013-03-02 20:20:00,
2013-03-02 15:21:00,57.8,44.4,30.03,NW,318,4.0,12.0,61,0.00,,,0.01,Wunderground v.1.15,2013-03-02 20:21:00,
2013-03-02 15:23:00,57.8,44.4,30.03,WNW,297,9.0,12.0,61,0.00,,,0.01,Wunderground v.1.15,2013-03-02 20:23:00,
2013-03-02 15:24:00,57.8,44.4,30.03,NW,305,9.0,14.0,61,0.00,,,0.01,Wunderground v.1.15,2013-03-02 20:24:00,
2013-03-02 15:26:00,57.7,44.3,30.03,West,276,7.0,16.0,61,0.00,,,0.01,Wunderground v.1.15,2013-03-02 20:26:00,
2013-03-02 15:28:00,57.8,44.0,30.03,NW,314,11.0,16.0,60,0.00,,,0.01,Wunderground v.1.15,2013-03-02 20:28:00,
2013-03-02 15:29:00,57.7,43.9,30.03,NNW,335,11.0,16.0,60,0.00,,,0.01,Wunderground v.1.15,2013-03-02 20:29:00,
2013-03-02 15:31:00,57.6,44.2,30.03,WNW,293,13.0,13.0,61,0.00,,,0.01,Wunderground v.1.15,2013-03-02 20:31:00,
2013-03-02 15:33:00,57.7,44.3,30.02,NNW,328,10.0,18.0,61,0.00,,,0.01,Wunderground v.1.15,2013-03-02 20:33:00,
2013-03-02 15:34:00,57.6,44.7,30.03,NE,46,11.0,18.0,62,0.00,,,0.01,Wunderground v.1.15,2013-03-02 20:34:00,
2013-03-02 15:36:00,57.7,45.2,30.03,NNW,340,4.0,18.0,63,0.00,,,0.01,Wunderground v.1.15,2013-03-02 20:36:00,
2013-03-02 15:38:00,57.9,45.0,30.03,WNW,301,15.0,20.0,62,0.00,,,0.01,Wunderground v.1.15,2013-03-02 20:38:00,
2013-03-02 15:39:00,57.9,44.1,30.03,NW,307,5.0,20.0,60,0.00,,,0.01,Wunderground v.1.15,2013-03-02 20:39:00,
2013-03-02 15:41:00,57.9,44.5,30.03,WNW,290,6.0,13.0,61,0.00,,,0.01,Wunderground v.1.15,2013-03-02 20:41:00,
2013-03-02 15:43:00,57.8,44.0,30.02,WNW,297,12.0,15.0,60,0.00,,,0.01,Wunderground v.1.15,2013-03-02 20:43:00,
2013-03-02 15:44:00,57.7,43.9,30.03,NNW,336,7.0,15.0,60,0.00,,,0.01,Wunderground v.1.15,2013-03-02 20:44:00,
2013-03-02 15:46:00,57.6,43.8,30.03,NNW,347,7.0,15.0,60,0.00,,,0.01,Wunderground v.1.15,2013-03-02 20:46:00,
2013-03-02 15:48:00,57.5,44.1,30.03,NW,307,8.0,15.0,61,0.00,,,0.01,Wunderground v.1.15,2013-03-02 20:48:00,
2013-03-02 15:49:00,57.4,44.1,30.03,North,349,11.0,15.0,61,0.00,,,0.01,Wunderground v.1.15,2013-03-02 20:49:00,
2013-03-02 15:51:00,57.3,44.4,30.03,NW,315,9.0,16.0,62,0.00,,,0.01,Wunderground v.1.15,2013-03-02 20:51:00,
2013-03-02 15:52:00,57.1,44.2,30.03,WNW,302,14.0,18.0,62,0.00,,,0.01,Wunderground v.1.15,2013-03-02 20:52:00,
2013-03-02 15:53:00,57.0,44.5,30.03,NW,307,6.0,18.0,63,0.00,,,0.01,Wunderground v.1.15,2013-03-02 20:53:00,
2013-03-02 15:55:00,57.0,44.5,30.03,WNW,302,14.0,18.0,63,0.00,,,0.01,Wunderground v.1.15,2013-03-02 20:55:00,
2013-03-02 15:56:00,57.0,44.9,30.03,NNW,337,12.0,18.0,64,0.00,,,0.01,Wunderground v.1.15,2013-03-02 20:56:00,
2013-03-02 15:57:00,57.1,44.6,30.03,West,279,12.0,18.0,63,0.00,,,0.01,Wunderground v.1.15,2013-03-02 20:57:00,
2013-03-02 15:58:00,57.3,45.2,30.03,NNW,329,7.0,18.0,64,0.00,,,0.01,Wunderground v.1.15,2013-03-02 20:58:00,
2013-03-02 16:00:00,57.6,45.1,30.03,NW,313,4.0,10.0,63,0.00,,,0.01,Wunderground v.1.15,2013-03-02 21:00:00,
2013-03-02 16:01:00,57.8,44.9,30.03,NW,314,11.0,13.0,62,0.00,,,0.01,Wunderground v.1.15,2013-03-02 21:01:00,
2013-03-02 16:02:00,57.8,44.4,30.03,WNW,300,9.0,17.0,61,0.00,,,0.01,Wunderground v.1.15,2013-03-02 21:02:00,
2013-03-02 16:04:00,57.7,44.3,30.03,WNW,302,7.0,17.0,61,0.00,,,0.01,Wunderground v.1.15,2013-03-02 21:04:00,
2013-03-02 16:05:00,57.7,44.8,30.03,NW,313,6.0,17.0,62,0.00,,,0.01,Wunderground v.1.15,2013-03-02 21:05:00,
2013-03-02 16:06:00,57.6,44.7,30.03,West,272,2.0,17.0,62,0.00,,,0.01,Wunderground v.1.15,2013-03-02 21:06:00,
2013-03-02 16:07:00,57.5,45.0,30.03,North,354,13.0,17.0,63,0.00,,,0.01,Wunderground v.1.15,2013-03-02 21:07:00,
2013-03-02 16:09:00,57.4,44.9,30.03,WNW,283,9.0,17.0,63,0.00,,,0.01,Wunderground v.1.15,2013-03-02 21:09:00,
2013-03-02 16:10:00,57.2,44.7,30.03,West,278,12.0,14.0,63,0.00,,,0.01,Wunderground v.1.15,2013-03-02 21:10:00,
2013-03-02 16:11:00,57.0,44.1,30.03,NNW,329,19.0,19.0,62,0.00,,,0.01,Wunderground v.1.15,2013-03-02 21:11:00,
2013-03-02 16:13:00,56.8,43.9,30.03,NNW,330,7.0,22.0,62,0.00,,,0.01,Wunderground v.1.15,2013-03-02 21:13:00,
2013-03-02 16:14:00,56.7,43.4,30.03,NW,314,16.0,22.0,61,0.00,,,0.01,Wunderground v.1.15,2013-03-02 21:14:00,
2013-03-02 16:15:00,56.5,43.2,30.03,SW,231,8.0,22.0,61,0.00,,,0.01,Wunderground v.1.15,2013-03-02 21:15:00,
2013-03-02 16:17:00,56.4,43.5,30.03,NNW,340,9.0,22.0,62,0.00,,,0.01,Wunderground v.1.15,2013-03-02 21:17:00,
2013-03-02 16:18:00,56.3,43.4,30.03,NNW,331,12.0,22.0,62,0.00,,,0.01,Wunderground v.1.15,2013-03-02 21:18:00,
2013-03-02 16:19:00,56.3,43.9,30.03,NW,309,9.0,22.0,63,0.00,,,0.01,Wunderground v.1.15,2013-03-02 21:19:00,
2013-03-02 16:20:00,56.3,44.3,30.03,NW,313,5.0,13.0,64,0.00,,,0.01,Wunderground v.1.15,2013-03-02 21:20:00,
2013-03-02 16:22:00,56.2,43.8,30.03,NNW,345,10.0,20.0,63,0.00,,,0.01,Wunderground v.1.15,2013-03-02 21:22:00,
2013-03-02 16:24:00,56.2,43.8,30.03,NNW,343,10.0,20.0,63,0.00,,,0.01,Wunderground v.1.15,2013-03-02 21:24:00,
2013-03-02 16:25:00,56.3,43.9,30.03,NNW,340,11.0,20.0,63,0.00,,,0.01,Wunderground v.1.15,2013-03-02 21:25:00,
2013-03-02 16:27:00,56.3,43.9,30.03,NW,323,7.0,20.0,63,0.00,,,0.01,Wunderground v.1.15,2013-03-02 21:27:00,
2013-03-02 16:29:00,56.5,44.0,30.03,NNW,335,7.0,20.0,63,0.00,,,0.01,Wunderground v.1.15,2013-03-02 21:29:00,
2013-03-02 16:30:00,56.6,44.6,30.03,WNW,290,7.0,14.0,64,0.00,,,0.01,Wunderground v.1.15,2013-03-02 21:30:00,
2013-03-02 16:32:00,56.8,44.7,30.03,NW,312,18.0,19.0,64,0.00,,,0.01,Wunderground v.1.15,2013-03-02 21:32:00,
2013-03-02 16:34:00,56.7,43.8,30.02,NW,309,11.0,19.0,62,0.00,,,0.01,Wunderground v.1.15,2013-03-02 21:34:00,
2013-03-02 16:35:00,56.6,44.1,30.02,NNW,340,11.0,19.0,63,0.00,,,0.01,Wunderground v.1.15,2013-03-02 21:35:00,
2013-03-02 16:37:00,56.6,44.6,30.02,WNW,283,5.0,19.0,64,0.00,,,0.01,Wunderground v.1.15,2013-03-02 21:37:00,
2013-03-02 16:39:00,56.6,44.1,30.02,NNW,330,9.0,19.0,63,0.00,,,0.01,Wunderground v.1.15,2013-03-02 21:39:00,
2013-03-02 16:40:00,56.6,44.1,30.02,NW,307,6.0,8.0,63,0.00,,,0.01,Wunderground v.1.15,2013-03-02 21:40:00,
2013-03-02 16:43:00,56.8,44.3,30.02,WNW,283,8.0,12.0,63,0.00,,,0.01,Wunderground v.1.15,2013-03-02 21:43:00,
2013-03-02 16:44:00,56.8,44.3,30.03,NW,307,10.0,12.0,63,0.00,,,0.01,Wunderground v.1.15,2013-03-02 21:44:00,
2013-03-02 16:45:00,56.8,43.9,30.03,NW,321,10.0,12.0,62,0.00,,,0.01,Wunderground v.1.15,2013-03-02 21:45:00,
2013-03-02 16:46:00,56.8,43.1,30.03,NW,307,9.0,12.0,60,0.00,,,0.01,Wunderground v.1.15,2013-03-02 21:46:00,
2013-03-02 16:48:00,56.7,43.4,30.02,WNW,284,8.0,14.0,61,0.00,,,0.01,Wunderground v.1.15,2013-03-02 21:48:00,
2013-03-02 16:49:00,56.7,43.4,30.02,NW,305,5.0,14.0,61,0.00,,,0.01,Wunderground v.1.15,2013-03-02 21:49:00,
2013-03-02 16:50:00,56.7,43.4,30.02,West,280,6.0,8.0,61,0.00,,,0.01,Wunderground v.1.15,2013-03-02 21:50:00,
2013-03-02 16:51:00,56.9,43.6,30.03,WNW,289,4.0,8.0,61,0.00,,,0.01,Wunderground v.1.15,2013-03-02 21:51:00,
2013-03-02 16:53:00,57.0,42.8,30.03,WNW,291,14.0,14.0,59,0.00,,,0.01,Wunderground v.1.15,2013-03-02 21:53:00,
2013-03-02 16:54:00,56.9,43.2,30.03,NW,313,4.0,14.0,60,0.00,,,0.01,Wunderground v.1.15,2013-03-02 21:54:00,
2013-03-02 16:55:00,56.9,43.2,30.02,NW,313,10.0,14.0,60,0.00,,,0.01,Wunderground v.1.15,2013-03-02 21:55:00,
2013-03-02 16:56:00,56.9,43.6,30.02,WNW,290,6.0,14.0,61,0.00,,,0.01,Wunderground v.1.15,2013-03-02 21:56:00,
2013-03-02 16:58:00,56.8,43.5,30.02,WNW,288,6.0,14.0,61,0.00,,,0.01,Wunderground v.1.15,2013-03-02 21:58:00,
2013-03-02 16:59:00,56.8,43.9,30.03,WNW,300,2.0,14.0,62,0.00,,,0.01,Wunderground v.1.15,2013-03-02 21:59:00,
2013-03-02 17:00:00,56.8,43.9,30.03,NNW,328,4.0,8.0,62,0.00,,,0.01,Wunderground v.1.15,2013-03-02 22:00:00,
2013-03-02 17:01:00,56.9,44.4,30.03,WNW,295,5.0,8.0,63,0.00,,,0.01,Wunderground v.1.15,2013-03-02 22:01:00,
2013-03-02 17:03:00,57.0,43.7,30.03,WNW,301,7.0,11.0,61,0.00,,,0.01,Wunderground v.1.15,2013-03-02 22:03:00,
2013-03-02 17:05:00,57.1,44.2,30.03,WNW,301,4.0,11.0,62,0.00,,,0.01,Wunderground v.1.15,2013-03-02 22:05:00,
2013-03-02 17:06:00,57.2,44.3,30.03,West,263,4.0,11.0,62,0.00,,,0.01,Wunderground v.1.15,2013-03-02 22:06:00,
2013-03-02 17:08:00,57.1,43.3,30.03,West,267,7.0,12.0,60,0.00,,,0.01,Wunderground v.1.15,2013-03-02 22:08:00,
2013-03-02 17:10:00,57.0,43.7,30.03,NW,315,8.0,8.0,61,0.00,,,0.01,Wunderground v.1.15,2013-03-02 22:10:00,
2013-03-02 17:11:00,56.8,43.1,30.03,WNW,303,5.0,18.0,60,0.00,,,0.01,Wunderground v.1.15,2013-03-02 22:11:00,
2013-03-02 17:12:00,56.7,43.0,30.03,NW,322,6.0,18.0,60,0.00,,,0.01,Wunderground v.1.15,2013-03-02 22:12:00,
2013-03-02 17:13:00,56.6,43.3,30.03,ENE,60,3.0,18.0,61,0.00,,,0.01,Wunderground v.1.15,2013-03-02 22:13:00,
2013-03-02 17:15:00,56.5,43.2,30.03,WNW,288,9.0,18.0,61,0.00,,,0.01,Wunderground v.1.15,2013-03-02 22:15:00,
2013-03-02 17:16:00,56.4,43.1,30.03,West,276,5.0,18.0,61,0.00,,,0.01,Wunderground v.1.15,2013-03-02 22:16:00,
2013-03-02 17:17:00,56.3,43.0,30.03,WNW,303,6.0,18.0,61,0.00,,,0.01,Wunderground v.1.15,2013-03-02 22:17:00,
2013-03-02 17:18:00,56.2,42.9,30.03,WNW,285,6.0,18.0,61,0.00,,,0.01,Wunderground v.1.15,2013-03-02 22:18:00,
2013-03-02 17:20:00,56.1,43.3,30.03,NW,314,7.0,7.0,62,0.00,,,0.01,Wunderground v.1.15,2013-03-02 22:20:00,
2013-03-02 17:21:00,56.1,43.3,30.03,NW,305,4.0,11.0,62,0.00,,,0.01,Wunderground v.1.15,2013-03-02 22:21:00,
2013-03-02 17:22:00,56.1,42.8,30.03,NNW,347,8.0,11.0,61,0.00,,,0.01,Wunderground v.1.15,2013-03-02 22:22:00,
2013-03-02 17:24:00,56.1,42.8,30.03,NNW,330,4.0,11.0,61,0.00,,,0.01,Wunderground v.1.15,2013-03-02 22:24:00,
2013-03-02 17:25:00,56.2,43.3,30.03,West,264,6.0,13.0,62,0.00,,,0.01,Wunderground v.1.15,2013-03-02 22:25:00,
2013-03-02 17:26:00,56.2,43.3,30.03,NW,318,7.0,13.0,62,0.00,,,0.01,Wunderground v.1.15,2013-03-02 22:26:00,
2013-03-02 17:27:00,56.2,43.3,30.03,NW,308,9.0,13.0,62,0.00,,,0.01,Wunderground v.1.15,2013-03-02 22:27:00,
2013-03-02 17:29:00,56.2,42.9,30.03,NW,321,3.0,15.0,61,0.00,,,0.01,Wunderground v.1.15,2013-03-02 22:29:00,
2013-03-02 17:30:00,56.1,42.8,30.03,WNW,301,10.0,12.0,61,0.00,,,0.01,Wunderground v.1.15,2013-03-02 22:30:00,
2013-03-02 17:31:00,56.1,42.8,30.03,WNW,298,8.0,13.0,61,0.00,,,0.01,Wunderground v.1.15,2013-03-02 22:31:00,
2013-03-02 17:32:00,56.1,43.3,30.03,West,279,9.0,13.0,62,0.00,,,0.01,Wunderground v.1.15,2013-03-02 22:32:00,
2013-03-02 17:34:00,56.0,43.6,30.03,NW,307,16.0,18.0,63,0.00,,,0.01,Wunderground v.1.15,2013-03-02 22:34:00,
2013-03-02 17:35:00,56.0,43.2,30.03,WSW,256,5.0,18.0,62,0.00,,,0.01,Wunderground v.1.15,2013-03-02 22:35:00,
2013-03-02 17:37:00,56.0,43.2,30.03,WNW,289,4.0,18.0,62,0.00,,,0.01,Wunderground v.1.15,2013-03-02 22:37:00,
2013-03-02 17:39:00,55.9,42.6,30.03,WNW,296,9.0,18.0,61,0.00,,,0.01,Wunderground v.1.15,2013-03-02 22:39:00,
2013-03-02 17:41:00,55.9,43.1,30.03,NNW,334,6.0,8.0,62,0.00,,,0.01,Wunderground v.1.15,2013-03-02 22:41:00,
2013-03-02 17:42:00,55.9,43.5,30.03,NNW,335,5.0,8.0,63,0.00,,,0.01,Wunderground v.1.15,2013-03-02 22:42:00,
2013-03-02 17:44:00,56.0,44.0,30.03,WNW,298,10.0,11.0,64,0.00,,,0.01,Wunderground v.1.15,2013-03-02 22:44:00,
2013-03-02 17:46:00,56.1,44.1,30.03,North,349,5.0,13.0,64,0.00,,,0.01,Wunderground v.1.15,2013-03-02 22:46:00,
2013-03-02 17:47:00,56.1,44.1,30.03,NNW,332,8.0,13.0,64,0.00,,,0.01,Wunderground v.1.15,2013-03-02 22:47:00,
2013-03-02 17:50:00,56.1,44.1,30.03,NW,316,7.0,9.0,64,0.00,,,0.01,Wunderground v.1.15,2013-03-02 22:50:00,
2013-03-02 17:51:00,56.1,44.1,30.03,NNE,13,4.0,12.0,64,0.00,,,0.01,Wunderground v.1.15,2013-03-02 22:51:00,
2013-03-02 17:52:00,56.1,43.7,30.03,NW,316,9.0,13.0,63,0.00,,,0.01,Wunderground v.1.15,2013-03-02 22:52:00,
2013-03-02 17:55:00,55.9,43.5,30.03,NNW,337,8.0,13.0,63,0.00,,,0.01,Wunderground v.1.15,2013-03-02 22:55:00,
2013-03-02 17:56:00,55.9,43.9,30.03,WNW,298,7.0,13.0,64,0.00,,,0.01,Wunderground v.1.15,2013-03-02 22:56:00,
2013-03-02 17:57:00,55.9,43.9,30.03,NNW,329,7.0,13.0,64,0.00,,,0.01,Wunderground v.1.15,2013-03-02 22:57:00,
2013-03-02 18:00:00,55.9,43.9,30.03,WNW,285,4.0,11.0,64,0.00,,,0.01,Wunderground v.1.15,2013-03-02 23:00:00,
2013-03-02 18:01:00,55.9,43.9,30.03,WNW,301,4.0,11.0,64,0.00,,,0.01,Wunderground v.1.15,2013-03-02 23:01:00,
2013-03-02 18:02:00,55.9,43.5,30.03,NNW,327,3.0,14.0,63,0.00,,,0.01,Wunderground v.1.15,2013-03-02 23:02:00,
2013-03-02 18:03:00,55.9,43.5,30.03,WNW,303,3.0,14.0,63,0.00,,,0.01,Wunderground v.1.15,2013-03-02 23:03:00,
2013-03-02 18:06:00,55.8,43.8,30.04,NW,319,7.0,16.0,64,0.00,,,0.01,Wunderground v.1.15,2013-03-02 23:06:00,
2013-03-02 18:07:00,55.8,43.8,30.03,WNW,287,5.0,16.0,64,0.00,,,0.01,Wunderground v.1.15,2013-03-02 23:07:00,
2013-03-02 18:08:00,55.8,43.8,30.03,North,4,5.0,16.0,64,0.00,,,0.01,Wunderground v.1.15,2013-03-02 23:08:00,
2013-03-02 18:11:00,55.7,43.7,30.04,NW,319,7.0,12.0,64,0.00,,,0.01,Wunderground v.1.15,2013-03-02 23:11:00,
2013-03-02 18:12:00,55.6,43.6,30.04,North,11,9.0,12.0,64,0.00,,,0.01,Wunderground v.1.15,2013-03-02 23:12:00,
2013-03-02 18:13:00,55.5,43.5,30.03,West,277,4.0,14.0,64,0.00,,,0.01,Wunderground v.1.15,2013-03-02 23:13:00,
2013-03-02 18:16:00,55.4,43.4,30.03,NNW,337,15.0,15.0,64,0.00,,,0.01,Wunderground v.1.15,2013-03-02 23:16:00,
2013-03-02 18:17:00,55.3,43.3,30.03,WNW,302,5.0,15.0,64,0.00,,,0.01,Wunderground v.1.15,2013-03-02 23:17:00,
2013-03-02 18:18:00,55.3,43.3,30.03,WNW,302,9.0,15.0,64,0.00,,,0.01,Wunderground v.1.15,2013-03-02 23:18:00,
2013-03-02 18:21:00,55.2,43.6,30.04,West,281,6.0,14.0,65,0.00,,,0.01,Wunderground v.1.15,2013-03-02 23:21:00,
2013-03-02 18:22:00,55.2,43.6,30.04,NW,313,5.0,14.0,65,0.00,,,0.01,Wunderground v.1.15,2013-03-02 23:22:00,
2013-03-02 18:24:00,55.1,43.5,30.04,NNW,330,7.0,14.0,65,0.00,,,0.01,Wunderground v.1.15,2013-03-02 23:24:00,
2013-03-02 18:26:00,55.1,43.5,30.04,NW,322,10.0,14.0,65,0.00,,,0.01,Wunderground v.1.15,2013-03-02 23:26:00,
2013-03-02 18:27:00,55.1,43.5,30.03,WNW,292,5.0,14.0,65,0.00,,,0.01,Wunderground v.1.15,2013-03-02 23:27:00,
2013-03-02 18:29:00,55.0,43.8,30.03,NW,313,4.0,14.0,66,0.00,,,0.01,Wunderground v.1.15,2013-03-02 23:29:00,
2013-03-02 18:31:00,54.9,43.7,30.03,WNW,298,3.0,10.0,66,0.00,,,0.01,Wunderground v.1.15,2013-03-02 23:31:00,
2013-03-02 18:32:00,54.9,43.7,30.03,NW,312,6.0,10.0,66,0.00,,,0.01,Wunderground v.1.15,2013-03-02 23:32:00,
2013-03-02 18:34:00,54.8,43.7,30.03,WNW,298,7.0,11.0,66,0.00,,,0.01,Wunderground v.1.15,2013-03-02 23:34:00,
2013-03-02 18:36:00,54.8,43.7,30.03,NW,313,7.0,12.0,66,0.00,,,0.01,Wunderground v.1.15,2013-03-02 23:36:00,
2013-03-02 18:37:00,54.7,43.6,30.03,North,5,5.0,12.0,66,0.00,,,0.01,Wunderground v.1.15,2013-03-02 23:37:00,
2013-03-02 18:39:00,54.7,43.6,30.03,NW,318,4.0,12.0,66,0.00,,,0.01,Wunderground v.1.15,2013-03-02 23:39:00,
2013-03-02 18:41:00,54.7,43.6,30.04,WNW,301,8.0,11.0,66,0.00,,,0.01,Wunderground v.1.15,2013-03-02 23:41:00,
2013-03-02 18:42:00,54.7,43.6,30.04,WNW,291,5.0,11.0,66,0.00,,,0.01,Wunderground v.1.15,2013-03-02 23:42:00,
2013-03-02 18:44:00,54.7,43.6,30.04,NW,307,9.0,11.0,66,0.00,,,0.01,Wunderground v.1.15,2013-03-02 23:44:00,
2013-03-02 18:46:00,54.7,43.6,30.04,WNW,290,13.0,14.0,66,0.00,,,0.01,Wunderground v.1.15,2013-03-02 23:46:00,
2013-03-02 18:47:00,54.7,43.6,30.04,WNW,294,5.0,14.0,66,0.00,,,0.01,Wunderground v.1.15,2013-03-02 23:47:00,
2013-03-02 18:50:00,54.7,43.6,30.04,NNW,328,5.0,7.0,66,0.00,,,0.01,Wunderground v.1.15,2013-03-02 23:50:00,
2013-03-02 18:51:00,54.8,43.7,30.04,WNW,292,5.0,9.0,66,0.00,,,0.01,Wunderground v.1.15,2013-03-02 23:51:00,
2013-03-02 18:52:00,54.8,43.7,30.04,WNW,291,5.0,9.0,66,0.00,,,0.01,Wunderground v.1.15,2013-03-02 23:52:00,
2013-03-02 18:55:00,54.8,44.0,30.04,West,281,3.0,9.0,67,0.00,,,0.01,Wunderground v.1.15,2013-03-02 23:55:00,
2013-03-02 18:56:00,54.9,44.1,30.04,WNW,285,7.0,11.0,67,0.00,,,0.01,Wunderground v.1.15,2013-03-02 23:56:00,
2013-03-02 18:57:00,54.9,44.1,30.04,West,277,2.0,11.0,67,0.00,,,0.01,Wunderground v.1.15,2013-03-02 23:57:00,
2013-03-02 18:58:00,54.9,44.1,30.04,NNW,335,4.0,11.0,67,0.00,,,0.01,Wunderground v.1.15,2013-03-02 23:58:00,
2013-03-02 19:00:00,55.0,44.6,30.04,WNW,294,3.0,6.0,68,0.00,,,0.01,Wunderground v.1.15,2013-03-03 00:00:00,
2013-03-02 19:02:00,55.1,44.7,30.04,NW,311,10.0,14.0,68,0.00,,,0.01,Wunderground v.1.15,2013-03-03 00:02:00,
2013-03-02 19:03:00,55.1,43.9,30.04,WNW,288,6.0,14.0,66,0.00,,,0.01,Wunderground v.1.15,2013-03-03 00:03:00,
2013-03-02 19:05:00,55.1,44.3,30.04,NW,312,4.0,15.0,67,0.00,,,0.01,Wunderground v.1.15,2013-03-03 00:05:00,
2013-03-02 19:07:00,55.1,44.3,30.04,NW,320,9.0,15.0,67,0.00,,,0.01,Wunderground v.1.15,2013-03-03 00:07:00,
2013-03-02 19:08:00,55.1,43.9,30.04,NNW,334,8.0,15.0,66,0.00,,,0.01,Wunderground v.1.15,2013-03-03 00:08:00,
2013-03-02 19:10:00,55.1,43.9,30.04,NW,312,6.0,7.0,66,0.00,,,0.01,Wunderground v.1.15,2013-03-03 00:10:00,
2013-03-02 19:12:00,55.1,43.9,30.04,NW,319,5.0,11.0,66,0.00,,,0.01,Wunderground v.1.15,2013-03-03 00:12:00,
2013-03-02 19:13:00,55.1,43.9,30.04,NW,307,5.0,11.0,66,0.00,,,0.01,Wunderground v.1.15,2013-03-03 00:13:00,
2013-03-02 19:15:00,55.1,43.9,30.04,NW,309,9.0,11.0,66,0.00,,,0.01,Wunderground v.1.15,2013-03-03 00:15:00,
2013-03-02 19:17:00,55.1,43.9,30.04,WNW,292,3.0,11.0,66,0.00,,,0.01,Wunderground v.1.15,2013-03-03 00:17:00,
2013-03-02 19:18:00,55.1,43.9,30.04,NNW,335,9.0,13.0,66,0.00,,,0.01,Wunderground v.1.15,2013-03-03 00:18:00,
2013-03-02 19:19:00,55.1,43.9,30.03,NW,319,9.0,13.0,66,0.00,,,0.01,Wunderground v.1.15,2013-03-03 00:19:00,
2013-03-02 19:20:00,55.1,43.9,30.04,NNE,16,7.0,7.0,66,0.00,,,0.01,Wunderground v.1.15,2013-03-03 00:20:00,
2013-03-02 19:22:00,55.2,44.0,30.04,WNW,291,6.0,13.0,66,0.00,,,0.01,Wunderground v.1.15,2013-03-03 00:22:00,
2013-03-02 19:23:00,55.2,44.0,30.04,NW,321,10.0,13.0,66,0.00,,,0.01,Wunderground v.1.15,2013-03-03 00:23:00,
2013-03-02 19:24:00,55.2,44.0,30.04,WNW,290,5.0,13.0,66,0.00,,,0.01,Wunderground v.1.15,2013-03-03 00:24:00,
2013-03-02 19:25:00,55.2,44.0,30.04,NW,321,8.0,13.0,66,0.00,,,0.01,Wunderground v.1.15,2013-03-03 00:25:00,
2013-03-02 19:28:00,55.3,44.1,30.03,NW,314,6.0,13.0,66,0.00,,,0.01,Wunderground v.1.15,2013-03-03 00:28:00,
2013-03-02 19:29:00,55.3,44.1,30.03,WNW,302,2.0,13.0,66,0.00,,,0.01,Wunderground v.1.15,2013-03-03 00:29:00,
2013-03-02 19:31:00,55.3,44.1,30.03,WNW,303,2.0,7.0,66,0.00,,,0.01,Wunderground v.1.15,2013-03-03 00:31:00,
2013-03-02 19:33:00,55.3,44.5,30.04,West,279,3.0,8.0,67,0.00,,,0.01,Wunderground v.1.15,2013-03-03 00:33:00,
2013-03-02 19:34:00,55.3,44.5,30.04,NNW,342,9.0,10.0,67,0.00,,,0.01,Wunderground v.1.15,2013-03-03 00:34:00,
2013-03-02 19:36:00,55.3,44.5,30.04,WNW,294,5.0,14.0,67,0.00,,,0.01,Wunderground v.1.15,2013-03-03 00:36:00,
2013-03-02 19:38:00,55.2,44.4,30.04,WNW,295,8.0,14.0,67,0.00,,,0.01,Wunderground v.1.15,2013-03-03 00:38:00,
2013-03-02 19:39:00,55.2,44.4,30.04,NW,307,7.0,14.0,67,0.00,,,0.01,Wunderground v.1.15,2013-03-03 00:39:00,
2013-03-02 19:41:00,55.2,44.8,30.04,NW,310,6.0,10.0,68,0.00,,,0.01,Wunderground v.1.15,2013-03-03 00:41:00,
2013-03-02 19:43:00,55.2,44.4,30.04,NW,307,9.0,12.0,67,0.00,,,0.01,Wunderground v.1.15,2013-03-03 00:43:00,
2013-03-02 19:44:00,55.2,44.4,30.04,NNW,337,6.0,12.0,67,0.00,,,0.01,Wunderground v.1.15,2013-03-03 00:44:00,
2013-03-02 19:47:00,55.3,44.1,30.04,NW,313,6.0,13.0,66,0.00,,,0.01,Wunderground v.1.15,2013-03-03 00:47:00,
2013-03-02 19:49:00,55.4,44.2,30.05,NNW,340,7.0,13.0,66,0.00,,,0.01,Wunderground v.1.15,2013-03-03 00:49:00,
2013-03-02 19:52:00,55.5,44.3,30.05,WNW,297,4.0,7.0,66,0.00,,,0.01,Wunderground v.1.15,2013-03-03 00:52:00,
2013-03-02 19:54:00,55.5,44.7,30.05,WNW,301,5.0,11.0,67,0.00,,,0.01,Wunderground v.1.15,2013-03-03 00:54:00,
2013-03-02 19:55:00,55.5,44.7,30.05,NW,305,6.0,11.0,67,0.00,,,0.01,Wunderground v.1.15,2013-03-03 00:55:00,
2013-03-02 19:57:00,55.5,44.7,30.05,NW,307,7.0,16.0,67,0.00,,,0.01,Wunderground v.1.15,2013-03-03 00:57:00,
2013-03-02 19:59:00,55.5,44.7,30.05,NW,315,5.0,16.0,67,0.00,,,0.01,Wunderground v.1.15,2013-03-03 00:59:00,
2013-03-02 20:00:00,55.5,44.7,30.06,NNW,335,9.0,9.0,67,0.00,,,0.01,Wunderground v.1.15,2013-03-03 01:00:00,
2013-03-02 20:02:00,55.5,44.3,30.06,NW,320,10.0,15.0,66,0.00,,,0.01,Wunderground v.1.15,2013-03-03 01:02:00,
2013-03-02 20:04:00,55.5,43.9,30.05,WNW,287,8.0,15.0,65,0.00,,,0.01,Wunderground v.1.15,2013-03-03 01:04:00,
2013-03-02 20:05:00,55.5,43.9,30.05,NW,315,2.0,15.0,65,0.00,,,0.01,Wunderground v.1.15,2013-03-03 01:05:00,
2013-03-02 20:08:00,55.5,43.9,30.05,WNW,301,4.0,15.0,65,0.00,,,0.01,Wunderground v.1.15,2013-03-03 01:08:00,
2013-03-02 20:09:00,55.4,43.8,30.05,SW,217,3.0,15.0,65,0.00,,,0.01,Wunderground v.1.15,2013-03-03 01:09:00,
2013-03-02 20:10:00,55.4,43.8,30.05,West,273,3.0,7.0,65,0.00,,,0.01,Wunderground v.1.15,2013-03-03 01:10:00,
2013-03-02 20:13:00,55.4,43.8,30.04,NE,38,3.0,13.0,65,0.00,,,0.01,Wunderground v.1.15,2013-03-03 01:13:00,
2013-03-02 20:15:00,55.3,44.1,30.04,NNW,342,4.0,13.0,66,0.00,,,0.01,Wunderground v.1.15,2013-03-03 01:15:00,
2013-03-02 20:18:00,55.2,44.0,30.04,NW,314,2.0,17.0,66,0.00,,,0.01,Wunderground v.1.15,2013-03-03 01:18:00,
2013-03-02 20:20:00,55.2,44.0,30.04,NNW,340,6.0,6.0,66,0.00,,,0.01,Wunderground v.1.15,2013-03-03 01:20:00,
2013-03-02 20:23:00,55.1,43.9,30.04,West,279,2.0,11.0,66,0.00,,,0.01,Wunderground v.1.15,2013-03-03 01:23:00,
2013-03-02 20:25:00,55.1,43.9,30.04,NW,323,3.0,11.0,66,0.00,,,0.01,Wunderground v.1.15,2013-03-03 01:25:00,
2013-03-02 20:28:00,55.2,43.6,30.04,WNW,288,8.0,13.0,65,0.00,,,0.01,Wunderground v.1.15,2013-03-03 01:28:00,
2013-03-02 20:30:00,55.2,43.6,30.04,NW,322,4.0,6.0,65,0.00,,,0.01,Wunderground v.1.15,2013-03-03 01:30:00,
2013-03-02 20:33:00,55.3,43.3,30.04,WNW,301,5.0,9.0,64,0.00,,,0.01,Wunderground v.1.15,2013-03-03 01:33:00,
2013-03-02 20:35:00,55.3,43.3,30.04,NW,314,4.0,13.0,64,0.00,,,0.01,Wunderground v.1.15,2013-03-03 01:35:00,
2013-03-02 20:36:00,55.4,43.4,30.04,NW,318,3.0,13.0,64,0.00,,,0.01,Wunderground v.1.15,2013-03-03 01:36:00,
2013-03-02 20:38:00,55.4,43.0,30.04,NW,319,3.0,13.0,63,0.00,,,0.01,Wunderground v.1.15,2013-03-03 01:38:00,
2013-03-02 20:40:00,55.4,43.0,30.04,WNW,291,8.0,12.0,63,0.00,,,0.01,Wunderground v.1.15,2013-03-03 01:40:00,
2013-03-02 20:41:00,55.4,43.0,30.04,NW,314,14.0,14.0,63,0.00,,,0.01,Wunderground v.1.15,2013-03-03 01:41:00,
2013-03-02 20:44:00,55.4,42.6,30.04,NW,311,9.0,16.0,62,0.00,,,0.01,Wunderground v.1.15,2013-03-03 01:44:00,
2013-03-02 20:45:00,55.5,42.7,30.04,NW,305,4.0,16.0,62,0.00,,,0.01,Wunderground v.1.15,2013-03-03 01:45:00,
2013-03-02 20:46:00,55.5,42.7,30.04,WNW,301,5.0,16.0,62,0.00,,,0.01,Wunderground v.1.15,2013-03-03 01:46:00,
2013-03-02 20:49:00,55.5,43.1,30.05,WNW,293,10.0,16.0,63,0.00,,,0.01,Wunderground v.1.15,2013-03-03 01:49:00,
2013-03-02 20:51:00,55.5,43.1,30.05,NNW,330,7.0,12.0,63,0.00,,,0.01,Wunderground v.1.15,2013-03-03 01:51:00,
2013-03-02 20:54:00,55.5,42.7,30.05,NW,305,11.0,12.0,62,0.00,,,0.01,Wunderground v.1.15,2013-03-03 01:54:00,
2013-03-02 20:56:00,55.6,42.8,30.05,West,259,9.0,12.0,62,0.00,,,0.01,Wunderground v.1.15,2013-03-03 01:56:00,
2013-03-02 21:00:00,55.6,42.4,30.05,WNW,284,10.0,12.0,61,0.00,,,0.01,Wunderground v.1.15,2013-03-03 02:00:00,
2013-03-02 21:01:00,55.7,42.5,30.05,WNW,291,5.0,12.0,61,0.00,,,0.01,Wunderground v.1.15,2013-03-03 02:01:00,
2013-03-02 21:05:00,55.8,42.5,30.06,NNW,338,5.0,12.0,61,0.00,,,0.01,Wunderground v.1.15,2013-03-03 02:05:00,
2013-03-02 21:06:00,55.8,43.0,30.06,WSW,239,4.0,12.0,62,0.00,,,0.01,Wunderground v.1.15,2013-03-03 02:06:00,
2013-03-02 21:10:00,55.9,42.2,30.06,WNW,294,3.0,11.0,60,0.00,,,0.01,Wunderground v.1.15,2013-03-03 02:10:00,
2013-03-02 21:11:00,55.9,42.6,30.06,NW,321,11.0,11.0,61,0.00,,,0.01,Wunderground v.1.15,2013-03-03 02:11:00,
2013-03-02 21:12:00,55.9,42.2,30.06,WNW,283,5.0,13.0,60,0.00,,,0.01,Wunderground v.1.15,2013-03-03 02:12:00,
2013-03-02 21:15:00,55.9,42.2,30.06,WNW,288,5.0,17.0,60,0.00,,,0.01,Wunderground v.1.15,2013-03-03 02:15:00,
2013-03-02 21:16:00,55.9,42.2,30.06,NNW,330,6.0,17.0,60,0.00,,,0.01,Wunderground v.1.15,2013-03-03 02:16:00,
2013-03-02 21:17:00,55.9,42.2,30.06,NW,323,4.0,17.0,60,0.00,,,0.01,Wunderground v.1.15,2013-03-03 02:17:00,
2013-03-02 21:20:00,55.9,43.1,30.06,West,266,1.0,8.0,62,0.00,,,0.01,Wunderground v.1.15,2013-03-03 02:20:00,
2013-03-02 21:21:00,55.9,43.1,30.06,NNE,13,13.0,13.0,62,0.00,,,0.01,Wunderground v.1.15,2013-03-03 02:21:00,
2013-03-02 21:22:00,55.9,43.1,30.06,NNW,332,5.0,14.0,62,0.00,,,0.01,Wunderground v.1.15,2013-03-03 02:22:00,
2013-03-02 21:25:00,55.9,42.6,30.06,NW,319,11.0,14.0,61,0.00,,,0.01,Wunderground v.1.15,2013-03-03 02:25:00,
2013-03-02 21:26:00,55.9,43.1,30.06,NW,308,4.0,14.0,62,0.00,,,0.01,Wunderground v.1.15,2013-03-03 02:26:00,
2013-03-02 21:27:00,55.9,43.1,30.06,WNW,294,5.0,14.0,62,0.00,,,0.01,Wunderground v.1.15,2013-03-03 02:27:00,
2013-03-02 21:31:00,55.8,42.1,30.06,North,5,5.0,15.0,60,0.00,,,0.01,Wunderground v.1.15,2013-03-03 02:31:00,
2013-03-02 21:32:00,55.7,42.0,30.05,NNW,337,6.0,15.0,60,0.00,,,0.01,Wunderground v.1.15,2013-03-03 02:32:00,
2013-03-02 21:33:00,55.8,42.5,30.06,WNW,290,5.0,15.0,61,0.00,,,0.01,Wunderground v.1.15,2013-03-03 02:33:00,
2013-03-02 21:36:00,55.8,42.1,30.06,WNW,300,8.0,15.0,60,0.00,,,0.01,Wunderground v.1.15,2013-03-03 02:36:00,
2013-03-02 21:37:00,55.8,42.1,30.05,NW,307,12.0,15.0,60,0.00,,,0.01,Wunderground v.1.15,2013-03-03 02:37:00,
2013-03-02 21:38:00,55.8,42.5,30.05,NW,304,6.0,15.0,61,0.00,,,0.01,Wunderground v.1.15,2013-03-03 02:38:00,
2013-03-02 21:41:00,55.8,42.1,30.06,NW,316,6.0,13.0,60,0.00,,,0.01,Wunderground v.1.15,2013-03-03 02:41:00,
2013-03-02 21:42:00,55.8,42.1,30.06,North,1,3.0,13.0,60,0.00,,,0.01,Wunderground v.1.15,2013-03-03 02:42:00,
2013-03-02 21:43:00,55.8,42.1,30.06,NW,311,12.0,14.0,60,0.00,,,0.01,Wunderground v.1.15,2013-03-03 02:43:00,
2013-03-02 21:46:00,55.8,42.1,30.06,WNW,302,10.0,17.0,60,0.00,,,0.01,Wunderground v.1.15,2013-03-03 02:46:00,
2013-03-02 21:48:00,55.7,42.5,30.06,NNW,335,7.0,17.0,61,0.00,,,0.01,Wunderground v.1.15,2013-03-03 02:48:00,
2013-03-02 21:51:00,55.7,42.9,30.06,NW,322,3.0,19.0,62,0.00,,,0.01,Wunderground v.1.15,2013-03-03 02:51:00,
2013-03-02 21:52:00,55.7,42.9,30.06,NW,307,2.0,19.0,62,0.00,,,0.01,Wunderground v.1.15,2013-03-03 02:52:00,
2013-03-02 21:53:00,55.7,42.9,30.06,West,271,4.0,19.0,62,0.00,,,0.01,Wunderground v.1.15,2013-03-03 02:53:00,
2013-03-02 21:56:00,55.6,42.8,30.06,NW,305,11.0,19.0,62,0.00,,,0.01,Wunderground v.1.15,2013-03-03 02:56:00,
2013-03-02 21:57:00,55.6,43.2,30.06,WNW,301,7.0,19.0,63,0.00,,,0.01,Wunderground v.1.15,2013-03-03 02:57:00,
2013-03-02 21:58:00,55.6,43.2,30.06,West,277,9.0,19.0,63,0.00,,,0.01,Wunderground v.1.15,2013-03-03 02:58:00,
2013-03-02 22:01:00,55.5,42.3,30.05,NW,314,3.0,12.0,61,0.00,,,0.01,Wunderground v.1.15,2013-03-03 03:01:00,
2013-03-02 22:03:00,55.5,42.3,30.05,NW,310,9.0,12.0,61,0.00,,,0.01,Wunderground v.1.15,2013-03-03 03:03:00,
2013-03-02 22:07:00,55.5,42.3,30.05,NNW,328,9.0,13.0,61,0.00,,,0.01,Wunderground v.1.15,2013-03-03 03:07:00,
2013-03-02 22:08:00,55.5,42.3,30.06,NW,314,6.0,13.0,61,0.00,,,0.01,Wunderground v.1.15,2013-03-03 03:08:00,
2013-03-02 22:12:00,55.5,42.7,30.05,WNW,293,7.0,12.0,62,0.00,,,0.01,Wunderground v.1.15,2013-03-03 03:12:00,
2013-03-02 22:14:00,55.5,42.7,30.05,NW,322,5.0,13.0,62,0.00,,,0.01,Wunderground v.1.15,2013-03-03 03:14:00,
2013-03-02 22:17:00,55.6,42.4,30.05,NNW,340,6.0,13.0,61,0.00,,,0.01,Wunderground v.1.15,2013-03-03 03:17:00,
2013-03-02 22:18:00,55.6,42.4,30.06,WNW,287,5.0,13.0,61,0.00,,,0.01,Wunderground v.1.15,2013-03-03 03:18:00,
2013-03-02 22:19:00,55.6,42.4,30.06,WNW,295,9.0,13.0,61,0.00,,,0.01,Wunderground v.1.15,2013-03-03 03:19:00,
2013-03-02 22:22:00,55.7,42.5,30.05,NNW,328,5.0,13.0,61,0.00,,,0.01,Wunderground v.1.15,2013-03-03 03:22:00,
2013-03-02 22:24:00,55.8,42.5,30.05,WNW,297,9.0,13.0,61,0.00,,,0.01,Wunderground v.1.15,2013-03-03 03:24:00,
2013-03-02 22:27:00,55.8,42.5,30.05,West,267,4.0,13.0,61,0.00,,,0.01,Wunderground v.1.15,2013-03-03 03:27:00,
2013-03-02 22:29:00,55.8,42.1,30.05,NW,315,5.0,14.0,60,0.00,,,0.01,Wunderground v.1.15,2013-03-03 03:29:00,
2013-03-02 22:32:00,55.7,42.5,30.06,WNW,287,7.0,12.0,61,0.00,,,0.01,Wunderground v.1.15,2013-03-03 03:32:00,
2013-03-02 22:34:00,55.7,42.5,30.05,WNW,294,8.0,15.0,61,0.00,,,0.01,Wunderground v.1.15,2013-03-03 03:34:00,
2013-03-02 22:37:00,55.7,42.0,30.05,WNW,294,9.0,15.0,60,0.00,,,0.01,Wunderground v.1.15,2013-03-03 03:37:00,
2013-03-02 22:39:00,55.7,42.0,30.05,WNW,296,6.0,15.0,60,0.00,,,0.01,Wunderground v.1.15,2013-03-03 03:39:00,
2013-03-02 22:42:00,55.7,42.5,30.05,NNW,328,7.0,10.0,61,0.00,,,0.01,Wunderground v.1.15,2013-03-03 03:42:00,
2013-03-02 22:44:00,55.7,42.5,30.05,WNW,288,4.0,12.0,61,0.00,,,0.01,Wunderground v.1.15,2013-03-03 03:44:00,
2013-03-02 22:47:00,55.7,42.0,30.05,NW,316,3.0,12.0,60,0.00,,,0.01,Wunderground v.1.15,2013-03-03 03:47:00,
2013-03-02 22:49:00,55.7,41.6,30.05,NW,319,7.0,12.0,59,0.00,,,0.01,Wunderground v.1.15,2013-03-03 03:49:00,
2013-03-02 22:50:00,55.8,42.1,30.05,NW,315,6.0,12.0,60,0.00,,,0.01,Wunderground v.1.15,2013-03-03 03:50:00,
2013-03-02 22:52:00,55.7,42.0,30.05,NW,307,8.0,12.0,60,0.00,,,0.01,Wunderground v.1.15,2013-03-03 03:52:00,
2013-03-02 22:54:00,55.7,42.5,30.05,WNW,295,8.0,12.0,61,0.00,,,0.01,Wunderground v.1.15,2013-03-03 03:54:00,
2013-03-02 22:55:00,55.7,42.5,30.05,West,279,10.0,12.0,61,0.00,,,0.01,Wunderground v.1.15,2013-03-03 03:55:00,
2013-03-02 22:57:00,55.7,42.5,30.05,West,276,8.0,12.0,61,0.00,,,0.01,Wunderground v.1.15,2013-03-03 03:57:00,
2013-03-02 22:59:00,55.7,42.5,30.05,WNW,297,3.0,12.0,61,0.00,,,0.01,Wunderground v.1.15,2013-03-03 03:59:00,
2013-03-02 23:00:00,55.7,42.5,30.05,NNW,338,6.0,9.0,61,0.00,,,0.01,Wunderground v.1.15,2013-03-03 04:00:00,
2013-03-02 23:02:00,55.7,42.5,30.05,NW,321,2.0,10.0,61,0.00,,,0.01,Wunderground v.1.15,2013-03-03 04:02:00,
2013-03-02 23:04:00,55.7,42.5,30.05,WNW,285,3.0,10.0,61,0.00,,,0.01,Wunderground v.1.15,2013-03-03 04:04:00,
2013-03-02 23:05:00,55.6,42.4,30.05,WNW,295,6.0,11.0,61,0.00,,,0.01,Wunderground v.1.15,2013-03-03 04:05:00,
2013-03-02 23:07:00,55.6,42.4,30.04,NW,304,10.0,15.0,61,0.00,,,0.01,Wunderground v.1.15,2013-03-03 04:07:00,
2013-03-02 23:09:00,55.6,42.8,30.04,WNW,289,14.0,15.0,62,0.00,,,0.01,Wunderground v.1.15,2013-03-03 04:09:00,
2013-03-02 23:10:00,55.6,42.4,30.04,NW,305,14.0,16.0,61,0.00,,,0.01,Wunderground v.1.15,2013-03-03 04:10:00,
2013-03-02 23:13:00,55.6,42.4,30.04,NW,305,13.0,16.0,61,0.00,,,0.01,Wunderground v.1.15,2013-03-03 04:13:00,
2013-03-02 23:14:00,55.6,42.4,30.04,WNW,290,13.0,17.0,61,0.00,,,0.01,Wunderground v.1.15,2013-03-03 04:14:00,
2013-03-02 23:15:00,55.6,41.9,30.04,NW,305,5.0,17.0,60,0.00,,,0.01,Wunderground v.1.15,2013-03-03 04:15:00,
2013-03-02 23:18:00,55.7,42.0,30.04,NW,322,9.0,19.0,60,0.00,,,0.01,Wunderground v.1.15,2013-03-03 04:18:00,
2013-03-02 23:19:00,55.7,42.0,30.04,North,349,9.0,19.0,60,0.00,,,0.01,Wunderground v.1.15,2013-03-03 04:19:00,
2013-03-02 23:20:00,55.6,41.9,30.04,NNW,330,4.0,9.0,60,0.00,,,0.01,Wunderground v.1.15,2013-03-03 04:20:00,
2013-03-02 23:23:00,55.6,42.4,30.04,West,270,6.0,12.0,61,0.00,,,0.01,Wunderground v.1.15,2013-03-03 04:23:00,
2013-03-02 23:24:00,55.6,42.4,30.04,NW,316,8.0,14.0,61,0.00,,,0.01,Wunderground v.1.15,2013-03-03 04:24:00,
2013-03-02 23:25:00,55.6,42.4,30.04,NW,305,2.0,14.0,61,0.00,,,0.01,Wunderground v.1.15,2013-03-03 04:25:00,
2013-03-02 23:28:00,55.6,42.4,30.04,NNW,329,4.0,16.0,61,0.00,,,0.01,Wunderground v.1.15,2013-03-03 04:28:00,
2013-03-02 23:29:00,55.6,42.8,30.04,NNW,335,13.0,16.0,62,0.00,,,0.01,Wunderground v.1.15,2013-03-03 04:29:00,
2013-03-02 23:30:00,55.6,42.8,30.04,NW,326,5.0,12.0,62,0.00,,,0.01,Wunderground v.1.15,2013-03-03 04:30:00,
2013-03-02 23:34:00,55.5,42.3,30.04,NW,319,6.0,18.0,61,0.00,,,0.01,Wunderground v.1.15,2013-03-03 04:34:00,
2013-03-02 23:35:00,55.5,42.7,30.04,NW,320,4.0,18.0,62,0.00,,,0.01,Wunderground v.1.15,2013-03-03 04:35:00,
2013-03-02 23:36:00,55.5,42.7,30.04,NNW,328,3.0,18.0,62,0.00,,,0.01,Wunderground v.1.15,2013-03-03 04:36:00,
2013-03-02 23:39:00,55.5,43.1,30.04,West,278,11.0,18.0,63,0.00,,,0.01,Wunderground v.1.15,2013-03-03 04:39:00,
2013-03-02 23:40:00,55.5,43.1,30.04,NW,318,6.0,8.0,63,0.00,,,0.01,Wunderground v.1.15,2013-03-03 04:40:00,
2013-03-02 23:41:00,55.5,43.1,30.04,WNW,301,5.0,9.0,63,0.00,,,0.01,Wunderground v.1.15,2013-03-03 04:41:00,
2013-03-02 23:44:00,55.5,43.1,30.04,NW,318,6.0,14.0,63,0.00,,,0.01,Wunderground v.1.15,2013-03-03 04:44:00,
2013-03-02 23:45:00,55.5,43.1,30.04,NW,311,6.0,14.0,63,0.00,,,0.01,Wunderground v.1.15,2013-03-03 04:45:00,
2013-03-02 23:46:00,55.5,43.1,30.04,NW,325,15.0,15.0,63,0.00,,,0.01,Wunderground v.1.15,2013-03-03 04:46:00,
2013-03-02 23:49:00,55.5,43.1,30.04,WNW,296,4.0,15.0,63,0.00,,,0.01,Wunderground v.1.15,2013-03-03 04:49:00,
2013-03-02 23:50:00,55.5,43.1,30.04,WNW,298,8.0,11.0,63,0.00,,,0.01,Wunderground v.1.15,2013-03-03 04:50:00,
2013-03-02 23:51:00,55.5,43.1,30.04,WNW,288,8.0,11.0,63,0.00,,,0.01,Wunderground v.1.15,2013-03-03 04:51:00,
2013-03-02 23:54:00,55.5,41.8,30.03,NW,314,10.0,12.0,60,0.00,,,0.01,Wunderground v.1.15,2013-03-03 04:54:00,
2013-03-02 23:55:00,55.5,41.8,30.04,NW,311,9.0,12.0,60,0.00,,,0.01,Wunderground v.1.15,2013-03-03 04:55:00,
2013-03-02 23:56:00,55.6,41.9,30.04,WNW,288,9.0,12.0,60,0.00,,,0.01,Wunderground v.1.15,2013-03-03 04:56:00,